| time (UTC) | temp F | wind direction | speed MPH | gust MPH | rain 1hr in | rain 24hr in | rain mn in | humidity % | barometer mb |
| 20260506203804 | 67 | 163 | 8.0 | 17.0 | 0.00 | 0.00 | 0.00 | 27 | 1012.5 |
| 20260506203725 | 67 | 163 | 8.0 | 17.0 | 0.00 | 0.00 | 0.00 | 27 | 1012.5 |
| 20260506203604 | 67 | 163 | 8.0 | 17.0 | 0.00 | 0.00 | 0.00 | 28 | 1012.5 |
| 20260506203504 | 67 | 163 | 7.0 | 17.0 | 0.00 | 0.00 | 0.00 | 28 | 1012.5 |
| 20260506203404 | 67 | 161 | 7.0 | 17.0 | 0.00 | 0.00 | 0.00 | 27 | 1012.5 |
| 20260506203304 | 67 | 159 | 6.0 | 17.0 | 0.00 | 0.00 | 0.00 | 25 | 1012.5 |
| 20260506203204 | 68 | 160 | 6.0 | 17.0 | 0.00 | 0.00 | 0.00 | 25 | 1012.5 |
| 20260506203104 | 68 | 159 | 6.0 | 17.0 | 0.00 | 0.00 | 0.00 | 23 | 1012.5 |
| 20260506203004 | 68 | 159 | 7.0 | 17.0 | 0.00 | 0.00 | 0.00 | 23 | 1012.4 |
| 20260506202904 | 68 | 159 | 7.0 | 15.0 | 0.00 | 0.00 | 0.00 | 23 | 1012.4 |
| 20260506202804 | 68 | 160 | 8.0 | 15.0 | 0.00 | 0.00 | 0.00 | 22 | 1012.4 |
| 20260506202704 | 68 | 162 | 8.0 | 15.0 | 0.00 | 0.00 | 0.00 | 23 | 1012.4 |
| 20260506202604 | 68 | 161 | 7.0 | 15.0 | 0.00 | 0.00 | 0.00 | 23 | 1012.4 |
| 20260506202504 | 68 | 160 | 8.0 | 15.0 | 0.00 | 0.00 | 0.00 | 21 | 1012.3 |
| 20260506202404 | 68 | 162 | 8.0 | 15.0 | 0.00 | 0.00 | 0.00 | 22 | 1012.4 |
| 20260506202306 | 68 | 162 | 8.0 | 15.0 | 0.00 | 0.00 | 0.00 | 23 | 1012.4 |
| 20260506202204 | 68 | 161 | 8.0 | 15.0 | 0.00 | 0.00 | 0.00 | 21 | 1012.4 |
| 20260506202104 | 68 | 162 | 8.0 | 14.0 | 0.00 | 0.00 | 0.00 | 22 | 1012.3 |
| 20260506202025 | 68 | 163 | 9.0 | 14.0 | 0.00 | 0.00 | 0.00 | 22 | 1012.3 |
| 20260506201904 | 68 | 165 | 8.0 | 16.0 | 0.00 | 0.00 | 0.00 | 23 | 1012.3 |
| 20260506201804 | 68 | 166 | 8.0 | 16.0 | 0.00 | 0.00 | 0.00 | 23 | 1012.3 |
| 20260506201704 | 68 | 165 | 7.0 | 16.0 | 0.00 | 0.00 | 0.00 | 21 | 1012.2 |
| 20260506201604 | 68 | 165 | 7.0 | 16.0 | 0.00 | 0.00 | 0.00 | 22 | 1012.2 |
| 20260506201503 | 68 | 167 | 6.0 | 16.0 | 0.00 | 0.00 | 0.00 | 21 | 1012.2 |
| 20260506201404 | 68 | 165 | 6.0 | 16.0 | 0.00 | 0.00 | 0.00 | 22 | 1012.1 |
| 20260506201304 | 68 | 168 | 6.0 | 16.0 | 0.00 | 0.00 | 0.00 | 22 | 1012.1 |
| 20260506201225 | 68 | 169 | 5.0 | 16.0 | 0.00 | 0.00 | 0.00 | 22 | 1012.2 |
| 20260506201125 | 68 | 167 | 5.0 | 16.0 | 0.00 | 0.00 | 0.00 | 22 | 1012.1 |
| 20260506201006 | 68 | 164 | 5.0 | 15.0 | 0.00 | 0.00 | 0.00 | 20 | 1012.2 |
| 20260506200905 | 68 | 164 | 5.0 | 14.0 | 0.00 | 0.00 | 0.00 | 19 | 1012.2 |
| 20260506200804 | 68 | 163 | 6.0 | 15.0 | 0.00 | 0.00 | 0.00 | 20 | 1012.2 |
| 20260506200704 | 68 | 164 | 6.0 | 17.0 | 0.00 | 0.00 | 0.00 | 20 | 1012.2 |
| 20260506200604 | 68 | 165 | 7.0 | 17.0 | 0.00 | 0.00 | 0.00 | 17 | 1012.2 |
| 20260506200504 | 69 | 165 | 7.0 | 17.0 | 0.00 | 0.00 | 0.00 | 17 | 1012.1 |
| 20260506200404 | 69 | 166 | 6.0 | 17.0 | 0.00 | 0.00 | 0.00 | 17 | 1012.1 |
| 20260506200304 | 68 | 163 | 6.0 | 17.0 | 0.00 | 0.00 | 0.00 | 17 | 1012.1 |
| 20260506200204 | 68 | 164 | 6.0 | 17.0 | 0.00 | 0.00 | 0.00 | 19 | 1012.1 |
| 20260506200104 | 68 | 166 | 5.0 | 17.0 | 0.00 | 0.00 | 0.00 | 20 | 1012.0 |
| 20260506200004 | 69 | 167 | 4.0 | 17.0 | 0.00 | 0.00 | 0.00 | 22 | 1012.0 |
| 20260506195904 | 69 | 166 | 3.0 | 17.0 | 0.00 | 0.00 | 0.00 | 22 | 1012.0 |
| 20260506195804 | 69 | 169 | 2.0 | 17.0 | 0.00 | 0.00 | 0.00 | 23 | 1012.0 |
| 20260506195704 | 69 | 170 | 2.0 | 15.0 | 0.00 | 0.00 | 0.00 | 23 | 1012.0 |
| 20260506195604 | 69 | 167 | 1.0 | 15.0 | 0.00 | 0.00 | 0.00 | 23 | 1012.0 |
| 20260506195504 | 69 | 168 | 1.0 | 15.0 | 0.00 | 0.00 | 0.00 | 23 | 1012.0 |
| 20260506195404 | 69 | 175 | 2.0 | 15.0 | 0.00 | 0.00 | 0.00 | 24 | 1012.0 |
| 20260506195306 | 69 | 175 | 2.0 | 15.0 | 0.00 | 0.00 | 0.00 | 23 | 1012.0 |
| 20260506195204 | 69 | 172 | 3.0 | 16.0 | 0.00 | 0.00 | 0.00 | 24 | 1012.0 |
| 20260506195104 | 69 | 169 | 3.0 | 17.0 | 0.00 | 0.00 | 0.00 | 24 | 1012.0 |
| 20260506195003 | 70 | 168 | 3.0 | 17.0 | 0.00 | 0.00 | 0.00 | 24 | 1012.0 |
| 20260506194904 | 70 | 170 | 3.0 | 17.0 | 0.00 | 0.00 | 0.00 | 24 | 1012.0 |
| 20260506194804 | 70 | 169 | 4.0 | 17.0 | 0.00 | 0.00 | 0.00 | 24 | 1012.1 |
| 20260506194704 | 70 | 172 | 4.0 | 17.0 | 0.00 | 0.00 | 0.00 | 25 | 1012.0 |
| 20260506194604 | 70 | 176 | 5.0 | 17.0 | 0.00 | 0.00 | 0.00 | 25 | 1012.0 |
| 20260506194504 | 70 | 175 | 5.0 | 18.0 | 0.00 | 0.00 | 0.00 | 25 | 1012.0 |
| 20260506194404 | 70 | 173 | 5.0 | 18.0 | 0.00 | 0.00 | 0.00 | 26 | 1011.9 |
| 20260506194325 | 70 | 175 | 6.0 | 18.0 | 0.00 | 0.00 | 0.00 | 26 | 1012.0 |
| 20260506194204 | 70 | 177 | 5.0 | 18.0 | 0.00 | 0.00 | 0.00 | 28 | 1011.9 |
| 20260506194104 | 70 | 177 | 6.0 | 18.0 | 0.00 | 0.00 | 0.00 | 28 | 1011.9 |
| 20260506194025 | 70 | 176 | 6.0 | 18.0 | 0.00 | 0.00 | 0.00 | 28 | 1012.0 |
| 20260506193904 | 71 | 174 | 7.0 | 18.0 | 0.00 | 0.00 | 0.00 | 28 | 1012.0 |
| 20260506193825 | 71 | 175 | 7.0 | 18.0 | 0.00 | 0.00 | 0.00 | 27 | 1011.9 |
| 20260506193725 | 71 | 175 | 7.0 | 18.0 | 0.00 | 0.00 | 0.00 | 28 | 1011.9 |
| 20260506193625 | 71 | 176 | 7.0 | 18.0 | 0.00 | 0.00 | 0.00 | 27 | 1011.9 |
| 20260506193504 | 71 | 175 | 7.0 | 16.0 | 0.00 | 0.00 | 0.00 | 26 | 1011.8 |
| 20260506193425 | 71 | 175 | 7.0 | 16.0 | 0.00 | 0.00 | 0.00 | 27 | 1011.8 |
| 20260506193304 | 71 | 172 | 7.0 | 16.0 | 0.00 | 0.00 | 0.00 | 26 | 1011.8 |
| 20260506193204 | 71 | 169 | 7.0 | 16.0 | 0.00 | 0.00 | 0.00 | 28 | 1011.9 |
| 20260506193104 | 71 | 169 | 8.0 | 16.0 | 0.00 | 0.00 | 0.00 | 28 | 1011.9 |
| 20260506193025 | 71 | 168 | 8.0 | 16.0 | 0.00 | 0.00 | 0.00 | 27 | 1011.9 |
| 20260506192904 | 71 | 167 | 9.0 | 16.0 | 0.00 | 0.00 | 0.00 | 27 | 1011.8 |
| 20260506192825 | 72 | 166 | 9.0 | 16.0 | 0.00 | 0.00 | 0.00 | 27 | 1011.8 |
| 20260506192704 | 71 | 164 | 8.0 | 16.0 | 0.00 | 0.00 | 0.00 | 27 | 1011.9 |
| 20260506192604 | 71 | 162 | 8.0 | 16.0 | 0.00 | 0.00 | 0.00 | 26 | 1011.9 |
| 20260506192504 | 71 | 160 | 8.0 | 16.0 | 0.00 | 0.00 | 0.00 | 28 | 1011.9 |
| 20260506192404 | 71 | 158 | 7.0 | 16.0 | 0.00 | 0.00 | 0.00 | 28 | 1011.9 |
| 20260506192305 | 71 | 158 | 6.0 | 16.0 | 0.00 | 0.00 | 0.00 | 27 | 1011.9 |
| 20260506192204 | 72 | 159 | 6.0 | 16.0 | 0.00 | 0.00 | 0.00 | 28 | 1011.9 |
| 20260506192125 | 72 | 158 | 4.0 | 16.0 | 0.00 | 0.00 | 0.00 | 29 | 1011.9 |
| 20260506192004 | 72 | 159 | 4.0 | 16.0 | 0.00 | 0.00 | 0.00 | 29 | 1011.9 |
| 20260506191925 | 72 | 161 | 3.0 | 15.0 | 0.00 | 0.00 | 0.00 | 28 | 1011.8 |
| 20260506191804 | 72 | 159 | 2.0 | 14.0 | 0.00 | 0.00 | 0.00 | 26 | 1011.9 |
| 20260506191725 | 72 | 159 | 3.0 | 11.0 | 0.00 | 0.00 | 0.00 | 26 | 1011.9 |
| 20260506191604 | 72 | 158 | 3.0 | 11.0 | 0.00 | 0.00 | 0.00 | 27 | 1011.9 |
| 20260506191504 | 72 | 159 | 2.0 | 11.0 | 0.00 | 0.00 | 0.00 | 27 | 1012.0 |
| 20260506191404 | 72 | 164 | 2.0 | 11.0 | 0.00 | 0.00 | 0.00 | 27 | 1012.1 |
| 20260506191304 | 73 | 163 | 2.0 | 11.0 | 0.00 | 0.00 | 0.00 | 26 | 1012.1 |
| 20260506191204 | 73 | 161 | 2.0 | 11.0 | 0.00 | 0.00 | 0.00 | 27 | 1012.1 |
| 20260506191104 | 73 | 161 | 2.0 | 11.0 | 0.00 | 0.00 | 0.00 | 28 | 1012.1 |
| 20260506191025 | 73 | 161 | 1.0 | 11.0 | 0.00 | 0.00 | 0.00 | 27 | 1012.1 |
| 20260506190925 | 73 | 161 | 1.0 | 11.0 | 0.00 | 0.00 | 0.00 | 28 | 1012.1 |
| 20260506190804 | 74 | 157 | 1.0 | 10.0 | 0.00 | 0.00 | 0.00 | 28 | 1012.0 |
| 20260506190704 | 74 | 155 | 1.0 | 10.0 | 0.00 | 0.00 | 0.00 | 27 | 1012.0 |
| 20260506190604 | 74 | 158 | 1.0 | 8.0 | 0.00 | 0.00 | 0.00 | 25 | 1012.0 |
| 20260506190525 | 74 | 158 | 1.0 | 8.0 | 0.00 | 0.00 | 0.00 | 25 | 1012.0 |
| 20260506190404 | 74 | 158 | 1.0 | 8.0 | 0.00 | 0.00 | 0.00 | 25 | 1011.9 |
| 20260506190304 | 74 | 158 | 0.0 | 8.0 | 0.00 | 0.00 | 0.00 | 24 | 1011.9 |
| 20260506190225 | 74 | 166 | 0.0 | 7.0 | 0.00 | 0.00 | 0.00 | 24 | 1011.9 |
| 20260506190104 | 74 | 163 | 0.0 | 7.0 | 0.00 | 0.00 | 0.00 | 23 | 1011.9 |
| 20260506190004 | 74 | 164 | 1.0 | 7.0 | 0.00 | 0.00 | 0.00 | 24 | 1011.9 |
| 20260506185904 | 74 | 167 | 1.0 | 7.0 | 0.00 | 0.00 | 0.00 | 24 | 1011.9 |
| 20260506185804 | 74 | 171 | 1.0 | 7.0 | 0.00 | 0.00 | 0.00 | 24 | 1011.9 |
| 20260506185704 | 74 | 171 | 1.0 | 7.0 | 0.00 | 0.00 | 0.00 | 23 | 1011.9 |
| 20260506185604 | 74 | 173 | 0.0 | 5.0 | 0.00 | 0.00 | 0.00 | 25 | 1011.9 |
| 20260506185504 | 74 | 174 | 0.0 | 5.0 | 0.00 | 0.00 | 0.00 | 22 | 1011.9 |
| 20260506185403 | 74 | 176 | 0.0 | 5.0 | 0.00 | 0.00 | 0.00 | 23 | 1011.9 |
| 20260506185306 | 74 | 175 | 0.0 | 5.0 | 0.00 | 0.00 | 0.00 | 24 | 1011.9 |
| 20260506185204 | 74 | 175 | 0.0 | 5.0 | 0.00 | 0.00 | 0.00 | 23 | 1011.8 |
| 20260506185104 | 74 | 181 | 0.0 | 4.0 | 0.00 | 0.00 | 0.00 | 24 | 1011.8 |
| 20260506185003 | 74 | 179 | 0.0 | 4.0 | 0.00 | 0.00 | 0.00 | 25 | 1011.8 |
| 20260506184904 | 74 | 179 | 0.0 | 4.0 | 0.00 | 0.00 | 0.00 | 25 | 1011.7 |
| 20260506184804 | 74 | 173 | 0.0 | 4.0 | 0.00 | 0.00 | 0.00 | 24 | 1011.7 |
| 20260506184704 | 74 | 180 | 0.0 | 4.0 | 0.00 | 0.00 | 0.00 | 22 | 1011.7 |
| 20260506184625 | 74 | 177 | 0.0 | 3.0 | 0.00 | 0.00 | 0.00 | 21 | 1011.7 |
| 20260506184504 | 74 | 177 | 0.0 | 3.0 | 0.00 | 0.00 | 0.00 | 21 | 1011.6 |
| 20260506184404 | 74 | 177 | 0.0 | 3.0 | 0.00 | 0.00 | 0.00 | 20 | 1011.7 |
| 20260506184304 | 74 | 172 | 0.0 | 3.0 | 0.00 | 0.00 | 0.00 | 20 | 1011.7 |
| 20260506184204 | 74 | 164 | 0.0 | 6.0 | 0.00 | 0.00 | 0.00 | 18 | 1011.7 |
| 20260506184103 | 74 | 164 | 0.0 | 6.0 | 0.00 | 0.00 | 0.00 | 19 | 1011.7 |
| 20260506184004 | 74 | 164 | 0.0 | 6.0 | 0.00 | 0.00 | 0.00 | 18 | 1011.7 |
| 20260506183925 | 74 | 164 | 0.0 | 6.0 | 0.00 | 0.00 | 0.00 | 17 | 1011.7 |
| 20260506183804 | 74 | 160 | 0.0 | 6.0 | 0.00 | 0.00 | 0.00 | 18 | 1011.7 |
| 20260506183704 | 74 | 155 | 0.0 | 6.0 | 0.00 | 0.00 | 0.00 | 16 | 1011.7 |
| 20260506183604 | 73 | 154 | 0.0 | 6.0 | 0.00 | 0.00 | 0.00 | 16 | 1011.7 |
| 20260506183504 | 73 | 154 | 0.0 | 6.0 | 0.00 | 0.00 | 0.00 | 15 | 1011.7 |
| 20260506183404 | 73 | 154 | 0.0 | 6.0 | 0.00 | 0.00 | 0.00 | 17 | 1011.7 |
| 20260506183304 | 73 | 155 | 0.0 | 6.0 | 0.00 | 0.00 | 0.00 | 16 | 1011.8 |
| 20260506183204 | 73 | 143 | 0.0 | 1.0 | 0.00 | 0.00 | 0.00 | 12 | 1011.8 |
| 20260506183104 | 73 | 143 | 0.0 | 1.0 | 0.00 | 0.00 | 0.00 | 13 | 1011.9 |
| 20260506183004 | 73 | 143 | 0.0 | 1.0 | 0.00 | 0.00 | 0.00 | 9 | 1011.8 |
| 20260506182925 | 72 | 143 | 0.0 | 1.0 | 0.00 | 0.00 | 0.00 | 12 | 1011.8 |
| 20260506182804 | 72 | 143 | 0.0 | 1.0 | 0.00 | 0.00 | 0.00 | 15 | 1011.9 |
| 20260506182704 | 72 | 143 | 0.0 | 1.0 | 0.00 | 0.00 | 0.00 | 15 | 1011.9 |
| 20260506182604 | 72 | 143 | 0.0 | 1.0 | 0.00 | 0.00 | 0.00 | 12 | 1011.9 |
| 20260506182504 | 72 | 143 | 0.0 | 1.0 | 0.00 | 0.00 | 0.00 | 13 | 1011.9 |
| 20260506182404 | 72 | 145 | 0.0 | 1.0 | 0.00 | 0.00 | 0.00 | 13 | 1011.8 |
| 20260506182306 | 72 | 145 | 0.0 | 1.0 | 0.00 | 0.00 | 0.00 | 14 | 1011.8 |
| 20260506182204 | 72 | 146 | 0.0 | 1.0 | 0.00 | 0.00 | 0.00 | 14 | 1011.9 |
| 20260506182104 | 72 | 146 | 0.0 | 1.0 | 0.00 | 0.00 | 0.00 | 12 | 1011.9 |
| 20260506182004 | 72 | 169 | 0.0 | 1.0 | 0.00 | 0.00 | 0.00 | 15 | 1011.8 |
| 20260506181904 | 72 | 169 | 0.0 | 1.0 | 0.00 | 0.00 | 0.00 | 14 | 1011.8 |
| 20260506181804 | 72 | 169 | 0.0 | 1.0 | 0.00 | 0.00 | 0.00 | 12 | 1011.8 |
| 20260506181704 | 72 | 169 | 0.0 | 1.0 | 0.00 | 0.00 | 0.00 | 15 | 1011.8 |
| 20260506181604 | 71 | 169 | 0.0 | 1.0 | 0.00 | 0.00 | 0.00 | 14 | 1011.8 |
| 20260506181525 | 71 | 169 | 0.0 | 1.0 | 0.00 | 0.00 | 0.00 | 15 | 1011.8 |
| 20260506181404 | 71 | 198 | 0.0 | 3.0 | 0.00 | 0.00 | 0.00 | 16 | 1011.8 |
| 20260506181304 | 71 | 198 | 0.0 | 3.0 | 0.00 | 0.00 | 0.00 | 16 | 1011.7 |
| 20260506181204 | 71 | 198 | 0.0 | 3.0 | 0.00 | 0.00 | 0.00 | 16 | 1011.7 |
| 20260506181104 | 71 | 198 | 0.0 | 3.0 | 0.00 | 0.00 | 0.00 | 18 | 1011.7 |
| 20260506181004 | 72 | 203 | 0.0 | 3.0 | 0.00 | 0.00 | 0.00 | 16 | 1011.7 |
| 20260506180925 | 72 | 203 | 0.0 | 3.0 | 0.00 | 0.00 | 0.00 | 12 | 1011.7 |
| 20260506180804 | 71 | 203 | 0.0 | 3.0 | 0.00 | 0.00 | 0.00 | 13 | 1011.7 |
| 20260506180704 | 71 | 203 | 0.0 | 3.0 | 0.00 | 0.00 | 0.00 | 13 | 1011.6 |
| 20260506180604 | 71 | 220 | 0.0 | 8.0 | 0.00 | 0.00 | 0.00 | 12 | 1011.6 |
| 20260506180504 | 71 | 222 | 1.0 | 8.0 | 0.00 | 0.00 | 0.00 | 9 | 1011.6 |
| 20260506180404 | 71 | 215 | 2.0 | 8.0 | 0.00 | 0.00 | 0.00 | 9 | 1011.6 |
| 20260506180304 | 71 | 211 | 2.0 | 9.0 | 0.00 | 0.00 | 0.00 | 7 | 1011.6 |
| 20260506180204 | 70 | 207 | 2.0 | 9.0 | 0.00 | 0.00 | 0.00 | 11 | 1011.6 |
| 20260506180104 | 70 | 209 | 3.0 | 9.0 | 0.00 | 0.00 | 0.00 | 13 | 1011.6 |
| 20260506180005 | 71 | 206 | 3.0 | 9.0 | 0.00 | 0.00 | 0.00 | 12 | 1011.7 |
| 20260506175904 | 71 | 206 | 4.0 | 9.0 | 0.00 | 0.00 | 0.00 | 11 | 1011.6 |
| 20260506175804 | 71 | 208 | 4.0 | 9.0 | 0.00 | 0.00 | 0.00 | 8 | 1011.6 |
| 20260506175725 | 70 | 209 | 4.0 | 9.0 | 0.00 | 0.00 | 0.00 | 12 | 1011.5 |
| 20260506175625 | 71 | 209 | 4.0 | 9.0 | 0.00 | 0.00 | 0.00 | 12 | 1011.5 |
| 20260506175504 | 70 | 210 | 4.0 | 9.0 | 0.00 | 0.00 | 0.00 | 11 | 1011.5 |
| 20260506175425 | 70 | 214 | 4.0 | 9.0 | 0.00 | 0.00 | 0.00 | 11 | 1011.5 |
| 20260506175306 | 70 | 218 | 4.0 | 8.0 | 0.00 | 0.00 | 0.00 | 10 | 1011.4 |
| 20260506175204 | 70 | 220 | 3.0 | 8.0 | 0.00 | 0.00 | 0.00 | 11 | 1011.5 |
| 20260506175104 | 70 | 220 | 3.0 | 8.0 | 0.00 | 0.00 | 0.00 | 6 | 1011.4 |
| 20260506175024 | 70 | 217 | 3.0 | 11.0 | 0.00 | 0.00 | 0.00 | 6 | 1011.5 |
| 20260506174904 | 70 | 219 | 3.0 | 11.0 | 0.00 | 0.00 | 0.00 | 7 | 1011.4 |
| 20260506174804 | 70 | 218 | 2.0 | 11.0 | 0.00 | 0.00 | 0.00 | 7 | 1011.5 |
| 20260506174704 | 70 | 217 | 2.0 | 11.0 | 0.00 | 0.00 | 0.00 | 7 | 1011.6 |
| 20260506174625 | 70 | 220 | 2.0 | 11.0 | 0.00 | 0.00 | 0.00 | 7 | 1011.6 |
| 20260506174525 | 70 | 217 | 1.0 | 11.0 | 0.00 | 0.00 | 0.00 | 6 | 1011.6 |
| 20260506174404 | 70 | 190 | 1.0 | 11.0 | 0.00 | 0.00 | 0.00 | 5 | 1011.6 |
| 20260506174304 | 69 | 188 | 1.0 | 11.0 | 0.00 | 0.00 | 0.00 | 7 | 1011.6 |
| 20260506174204 | 69 | 188 | 1.0 | 11.0 | 0.00 | 0.00 | 0.00 | 3 | 1011.6 |
| 20260506174104 | 69 | 186 | 0.0 | 11.0 | 0.00 | 0.00 | 0.00 | 5 | 1011.6 |
| 20260506174004 | 69 | 194 | 0.0 | 2.0 | 0.00 | 0.00 | 0.00 | 4 | 1011.6 |
| 20260506173904 | 69 | 189 | 0.0 | 2.0 | 0.00 | 0.00 | 0.00 | 1 | 1011.6 |
| 20260506173804 | 69 | 178 | 0.0 | 1.0 | 0.00 | 0.00 | 0.00 | 1 | 1011.7 |
| 20260506173704 | 69 | 204 | 0.0 | 2.0 | 0.00 | 0.00 | 0.00 | 1 | 1011.7 |
| 20260506173604 | 69 | 206 | 0.0 | 2.0 | 0.00 | 0.00 | 0.00 | 1 | 1011.8 |
| 20260506173525 | 68 | 207 | 0.0 | 2.0 | 0.00 | 0.00 | 0.00 | 1 | 1011.7 |
| 20260506173404 | 68 | 207 | 0.0 | 2.0 | 0.00 | 0.00 | 0.00 | 1 | 1011.7 |
| 20260506173304 | 68 | 205 | 0.0 | 2.0 | 0.00 | 0.00 | 0.00 | 1 | 1011.7 |
| 20260506173204 | 68 | 212 | 0.0 | 11.0 | 0.00 | 0.00 | 0.00 | 1 | 1011.7 |
| 20260506173104 | 68 | 175 | 1.0 | 11.0 | 0.00 | 0.00 | 0.00 | 1 | 1011.7 |
| 20260506173004 | 68 | 167 | 1.0 | 11.0 | 0.00 | 0.00 | 0.00 | 1 | 1011.7 |
| 20260506172904 | 68 | 169 | 1.0 | 11.0 | 0.00 | 0.00 | 0.00 | 1 | 1011.8 |
| 20260506172803 | 68 | 169 | 1.0 | 11.0 | 0.00 | 0.00 | 0.00 | 1 | 1011.8 |
| 20260506172704 | 68 | 167 | 1.0 | 11.0 | 0.00 | 0.00 | 0.00 | 1 | 1011.8 |
| 20260506172604 | 68 | 171 | 2.0 | 11.0 | 0.00 | 0.00 | 0.00 | 1 | 1011.8 |
| 20260506172504 | 68 | 186 | 2.0 | 11.0 | 0.00 | 0.00 | 0.00 | 1 | 1011.8 |
| 20260506172425 | 68 | 191 | 3.0 | 11.0 | 0.00 | 0.00 | 0.00 | 1 | 1011.9 |
| 20260506172306 | 68 | 199 | 4.0 | 11.0 | 0.00 | 0.00 | 0.00 | 1 | 1011.8 |
| 20260506172204 | 68 | 202 | 4.0 | 11.0 | 0.00 | 0.00 | 0.00 | 1 | 1011.8 |
| 20260506172104 | 68 | 208 | 4.0 | 11.0 | 0.00 | 0.00 | 0.00 | 1 | 1011.8 |
| 20260506172004 | 68 | 215 | 3.0 | 11.0 | 0.00 | 0.00 | 0.00 | 1 | 1011.7 |
| 20260506171904 | 67 | 215 | 4.0 | 11.0 | 0.00 | 0.00 | 0.00 | 1 | 1011.8 |
| 20260506171804 | 67 | 209 | 5.0 | 11.0 | 0.00 | 0.00 | 0.00 | 1 | 1011.8 |
| 20260506171725 | 67 | 206 | 5.0 | 11.0 | 0.00 | 0.00 | 0.00 | 1 | 1011.8 |
| 20260506171604 | 67 | 209 | 6.0 | 11.0 | 0.00 | 0.00 | 0.00 | 1 | 1011.9 |
| 20260506171504 | 67 | 214 | 6.0 | 11.0 | 0.00 | 0.00 | 0.00 | 1 | 1011.9 |
| 20260506171404 | 66 | 218 | 5.0 | 11.0 | 0.00 | 0.00 | 0.00 | 1 | 1011.9 |
| 20260506171325 | 66 | 219 | 5.0 | 11.0 | 0.00 | 0.00 | 0.00 | 1 | 1011.8 |
| 20260506171204 | 66 | 219 | 5.0 | 13.0 | 0.00 | 0.00 | 0.00 | 1 | 1011.8 |
| 20260506171104 | 66 | 217 | 6.0 | 13.0 | 0.00 | 0.00 | 0.00 | 1 | 1011.7 |
| 20260506171004 | 66 | 220 | 6.0 | 13.0 | 0.00 | 0.00 | 0.00 | 1 | 1011.8 |
| 20260506170904 | 66 | 223 | 6.0 | 13.0 | 0.00 | 0.00 | 0.00 | 1 | 1011.8 |
| 20260506170803 | 66 | 226 | 6.0 | 13.0 | 0.00 | 0.00 | 0.00 | 1 | 1011.8 |
| 20260506170704 | 66 | 224 | 6.0 | 13.0 | 0.00 | 0.00 | 0.00 | 1 | 1011.8 |
| 20260506170625 | 66 | 221 | 7.0 | 13.0 | 0.00 | 0.00 | 0.00 | 1 | 1011.9 |
| 20260506170525 | 66 | 215 | 7.0 | 13.0 | 0.00 | 0.00 | 0.00 | 1 | 1011.9 |
| 20260506170425 | 66 | 205 | 7.0 | 13.0 | 0.00 | 0.00 | 0.00 | 1 | 1011.9 |
| 20260506170303 | 66 | 200 | 7.0 | 13.0 | 0.00 | 0.00 | 0.00 | 1 | 1011.9 |
| 20260506170204 | 66 | 199 | 7.0 | 15.0 | 0.00 | 0.00 | 0.00 | 1 | 1012.0 |
| 20260506170104 | 66 | 197 | 7.0 | 15.0 | 0.00 | 0.00 | 0.00 | 1 | 1012.1 |
| 20260506170004 | 65 | 195 | 8.0 | 15.0 | 0.00 | 0.00 | 0.00 | 1 | 1012.2 |
| 20260506165904 | 65 | 195 | 8.0 | 15.0 | 0.00 | 0.00 | 0.00 | 1 | 1012.3 |
| 20260506165804 | 65 | 196 | 8.0 | 15.0 | 0.00 | 0.00 | 0.00 | 1 | 1012.3 |
| 20260506165704 | 65 | 199 | 8.0 | 15.0 | 0.00 | 0.00 | 0.00 | 1 | 1012.2 |
| 20260506165604 | 65 | 202 | 8.0 | 15.0 | 0.00 | 0.00 | 0.00 | 1 | 1012.2 |
| 20260506165504 | 65 | 203 | 7.0 | 15.0 | 0.00 | 0.00 | 0.00 | 1 | 1012.2 |
| 20260506165404 | 65 | 205 | 7.0 | 15.0 | 0.00 | 0.00 | 0.00 | 1 | 1012.2 |
| 20260506165305 | 65 | 209 | 7.0 | 15.0 | 0.00 | 0.00 | 0.00 | 1 | 1012.2 |
| 20260506165204 | 65 | 210 | 7.0 | 14.0 | 0.00 | 0.00 | 0.00 | 1 | 1012.2 |
| 20260506165125 | 65 | 210 | 7.0 | 14.0 | 0.00 | 0.00 | 0.00 | 1 | 1012.4 |
| 20260506165003 | 65 | 211 | 6.0 | 13.0 | 0.00 | 0.00 | 0.00 | 1 | 1012.5 |
| 20260506164903 | 64 | 209 | 6.0 | 13.0 | 0.00 | 0.00 | 0.00 | 1 | 1012.5 |
| 20260506164825 | 64 | 211 | 6.0 | 13.0 | 0.00 | 0.00 | 0.00 | 1 | 1012.5 |
| 20260506164704 | 64 | 212 | 6.0 | 13.0 | 0.00 | 0.00 | 0.00 | 1 | 1012.5 |
| 20260506164625 | 64 | 212 | 5.0 | 13.0 | 0.00 | 0.00 | 0.00 | 1 | 1012.5 |
| 20260506164504 | 64 | 214 | 5.0 | 13.0 | 0.00 | 0.00 | 0.00 | 1 | 1012.5 |
| 20260506164404 | 64 | 216 | 4.0 | 13.0 | 0.00 | 0.00 | 0.00 | 1 | 1012.5 |
| 20260506164304 | 64 | 211 | 4.0 | 13.0 | 0.00 | 0.00 | 0.00 | 1 | 1012.5 |
| 20260506164204 | 64 | 208 | 5.0 | 13.0 | 0.00 | 0.00 | 0.00 | 1 | 1012.6 |
| 20260506164104 | 63 | 207 | 5.0 | 13.0 | 0.00 | 0.00 | 0.00 | 1 | 1012.7 |
| 20260506164004 | 63 | 202 | 5.0 | 13.0 | 0.00 | 0.00 | 0.00 | 1 | 1012.8 |
| 20260506163903 | 63 | 199 | 5.0 | 13.0 | 0.00 | 0.00 | 0.00 | 1 | 1012.8 |
| 20260506163804 | 63 | 192 | 4.0 | 13.0 | 0.00 | 0.00 | 0.00 | 1 | 1013.0 |
| 20260506163703 | 63 | 185 | 5.0 | 12.0 | 0.00 | 0.00 | 0.00 | 1 | 1013.0 |
| 20260506163604 | 63 | 183 | 5.0 | 12.0 | 0.00 | 0.00 | 0.00 | 1 | 1013.0 |
| 20260506163504 | 63 | 184 | 6.0 | 12.0 | 0.00 | 0.00 | 0.00 | 1 | 1013.0 |
| 20260506163404 | 62 | 187 | 6.0 | 14.0 | 0.00 | 0.00 | 0.00 | 1 | 1013.1 |
| 20260506163304 | 62 | 187 | 7.0 | 14.0 | 0.00 | 0.00 | 0.00 | 1 | 1013.1 |
| 20260506163204 | 62 | 187 | 6.0 | 14.0 | 0.00 | 0.00 | 0.00 | 1 | 1013.1 |
| 20260506163104 | 62 | 187 | 6.0 | 14.0 | 0.00 | 0.00 | 0.00 | 1 | 1013.1 |
| 20260506163004 | 62 | 185 | 6.0 | 14.0 | 0.00 | 0.00 | 0.00 | 1 | 1013.1 |
| 20260506162904 | 62 | 186 | 7.0 | 14.0 | 0.00 | 0.00 | 0.00 | 1 | 1013.2 |
| 20260506162804 | 62 | 187 | 7.0 | 14.0 | 0.00 | 0.00 | 0.00 | 1 | 1013.2 |
| 20260506162703 | 62 | 185 | 7.0 | 14.0 | 0.00 | 0.00 | 0.00 | 1 | 1013.2 |
| 20260506162604 | 62 | 187 | 7.0 | 19.0 | 0.00 | 0.00 | 0.00 | 1 | 1013.2 |
| 20260506162504 | 63 | 186 | 7.0 | 19.0 | 0.00 | 0.00 | 0.00 | 1 | 1013.3 |
| 20260506162425 | 63 | 186 | 8.0 | 19.0 | 0.00 | 0.00 | 0.00 | 1 | 1013.2 |
| 20260506162306 | 63 | 184 | 8.0 | 19.0 | 0.00 | 0.00 | 0.00 | 1 | 1013.2 |
| 20260506162225 | 63 | 184 | 8.0 | 19.0 | 0.00 | 0.00 | 0.00 | 1 | 1013.2 |
| 20260506162125 | 63 | 183 | 9.0 | 19.0 | 0.00 | 0.00 | 0.00 | 1 | 1013.1 |
| 20260506162025 | 63 | 181 | 9.0 | 19.0 | 0.00 | 0.00 | 0.00 | 1 | 1013.2 |
| 20260506161904 | 63 | 182 | 10.0 | 19.0 | 0.00 | 0.00 | 0.00 | 1 | 1013.2 |
| 20260506161803 | 63 | 182 | 10.0 | 19.0 | 0.00 | 0.00 | 0.00 | 1 | 1013.4 |
| 20260506161704 | 63 | 185 | 10.0 | 19.0 | 0.00 | 0.00 | 0.00 | 1 | 1013.6 |
| 20260506161603 | 63 | 187 | 10.0 | 22.0 | 0.00 | 0.00 | 0.00 | 1 | 1013.6 |
| 20260506161504 | 63 | 186 | 10.0 | 22.0 | 0.00 | 0.00 | 0.00 | 1 | 1013.7 |
| 20260506161404 | 63 | 183 | 11.0 | 22.0 | 0.00 | 0.00 | 0.00 | 1 | 1013.8 |
| 20260506161325 | 63 | 182 | 11.0 | 22.0 | 0.00 | 0.00 | 0.00 | 1 | 1013.8 |
| 20260506161204 | 63 | 180 | 10.0 | 22.0 | 0.00 | 0.00 | 0.00 | 1 | 1013.8 |
| 20260506161104 | 64 | 180 | 10.0 | 22.0 | 0.00 | 0.00 | 0.00 | 1 | 1013.8 |
| 20260506161025 | 64 | 180 | 11.0 | 22.0 | 0.00 | 0.00 | 0.00 | 1 | 1013.6 |
| 20260506160903 | 64 | 177 | 11.0 | 22.0 | 0.00 | 0.00 | 0.00 | 1 | 1013.6 |
| 20260506160825 | 64 | 176 | 11.0 | 22.0 | 0.00 | 0.00 | 0.00 | 1 | 1013.5 |
| 20260506160704 | 64 | 173 | 11.0 | 22.0 | 0.00 | 0.00 | 0.00 | 1 | 1013.5 |
| 20260506160604 | 64 | 169 | 10.0 | 20.0 | 0.00 | 0.00 | 0.00 | 1 | 1013.5 |
| 20260506160504 | 64 | 169 | 10.0 | 20.0 | 0.00 | 0.00 | 0.00 | 1 | 1013.5 |
| 20260506160404 | 64 | 170 | 10.0 | 20.0 | 0.00 | 0.00 | 0.00 | 1 | 1013.4 |
| 20260506160304 | 64 | 172 | 10.0 | 24.0 | 0.00 | 0.00 | 0.00 | 1 | 1013.4 |
| 20260506160225 | 64 | 172 | 11.0 | 24.0 | 0.00 | 0.00 | 0.00 | 1 | 1013.4 |
| 20260506160104 | 64 | 171 | 11.0 | 24.0 | 0.00 | 0.00 | 0.00 | 1 | 1013.3 |
| 20260506160004 | 64 | 172 | 10.0 | 24.0 | 0.00 | 0.00 | 0.00 | 1 | 1013.5 |
| 20260506155903 | 65 | 174 | 10.0 | 24.0 | 0.00 | 0.00 | 0.00 | 1 | 1013.5 |
| 20260506155804 | 65 | 174 | 10.0 | 24.0 | 0.00 | 0.00 | 0.00 | 1 | 1013.6 |
| 20260506155703 | 65 | 175 | 10.0 | 24.0 | 0.00 | 0.00 | 0.00 | 1 | 1013.5 |
| 20260506155604 | 65 | 175 | 10.0 | 24.0 | 0.00 | 0.00 | 0.00 | 1 | 1013.6 |
| 20260506155504 | 65 | 174 | 10.0 | 24.0 | 0.00 | 0.00 | 0.00 | 1 | 1013.5 |
| 20260506155425 | 65 | 175 | 10.0 | 24.0 | 0.00 | 0.00 | 0.00 | 1 | 1013.5 |
| 20260506155306 | 65 | 172 | 9.0 | 22.0 | 0.00 | 0.00 | 0.00 | 1 | 1013.4 |
| 20260506155203 | 65 | 173 | 10.0 | 22.0 | 0.00 | 0.00 | 0.00 | 1 | 1013.3 |
| 20260506155104 | 65 | 174 | 10.0 | 22.0 | 0.00 | 0.00 | 0.00 | 1 | 1013.2 |
| 20260506155025 | 65 | 173 | 10.0 | 22.0 | 0.00 | 0.00 | 0.00 | 1 | 1013.1 |
| 20260506154904 | 65 | 172 | 11.0 | 23.0 | 0.00 | 0.00 | 0.00 | 1 | 1013.1 |
| 20260506154804 | 66 | 171 | 11.0 | 23.0 | 0.00 | 0.00 | 0.00 | 1 | 1013.1 |
| 20260506154704 | 66 | 172 | 12.0 | 23.0 | 0.00 | 0.00 | 0.00 | 1 | 1013.0 |
| 20260506154604 | 66 | 171 | 12.0 | 23.0 | 0.00 | 0.00 | 0.00 | 1 | 1013.0 |
| 20260506154504 | 66 | 172 | 12.0 | 23.0 | 0.00 | 0.00 | 0.00 | 1 | 1013.1 |
| 20260506154404 | 66 | 171 | 12.0 | 23.0 | 0.00 | 0.00 | 0.00 | 1 | 1013.1 |
| 20260506154304 | 66 | 171 | 13.0 | 23.0 | 0.00 | 0.00 | 0.00 | 1 | 1013.0 |
| 20260506154203 | 66 | 172 | 12.0 | 23.0 | 0.00 | 0.00 | 0.00 | 1 | 1013.0 |
| 20260506154104 | 66 | 171 | 12.0 | 23.0 | 0.00 | 0.00 | 0.00 | 1 | 1013.1 |
| 20260506154004 | 66 | 171 | 11.0 | 23.0 | 0.00 | 0.00 | 0.00 | 1 | 1013.1 |
| 20260506153904 | 67 | 172 | 11.0 | 22.0 | 0.00 | 0.00 | 0.00 | 1 | 1013.1 |
| 20260506153804 | 67 | 172 | 10.0 | 21.0 | 0.00 | 0.00 | 0.00 | 1 | 1013.1 |
| 20260506153704 | 67 | 174 | 10.0 | 19.0 | 0.00 | 0.00 | 0.00 | 1 | 1013.0 |
| 20260506153604 | 67 | 177 | 9.0 | 19.0 | 0.00 | 0.00 | 0.00 | 1 | 1012.9 |
| 20260506153504 | 67 | 177 | 9.0 | 19.0 | 0.00 | 0.00 | 0.00 | 1 | 1012.8 |
| 20260506153404 | 67 | 180 | 9.0 | 19.0 | 0.00 | 0.00 | 0.00 | 1 | 1012.6 |
| 20260506153325 | 67 | 182 | 8.0 | 19.0 | 0.00 | 0.00 | 0.00 | 1 | 1012.6 |
| 20260506153204 | 68 | 180 | 8.0 | 16.0 | 0.00 | 0.00 | 0.00 | 1 | 1012.5 |
| 20260506153104 | 68 | 182 | 8.0 | 16.0 | 0.00 | 0.00 | 0.00 | 1 | 1012.5 |
| 20260506153004 | 68 | 184 | 9.0 | 16.0 | 0.00 | 0.00 | 0.00 | 1 | 1012.4 |
| 20260506152904 | 68 | 184 | 8.0 | 16.0 | 0.00 | 0.00 | 0.00 | 1 | 1012.4 |
| 20260506152804 | 68 | 184 | 8.0 | 16.0 | 0.00 | 0.00 | 0.00 | 1 | 1012.3 |
| 20260506152704 | 68 | 182 | 8.0 | 19.0 | 0.00 | 0.00 | 0.00 | 1 | 1012.3 |
| 20260506152603 | 68 | 182 | 8.0 | 19.0 | 0.00 | 0.00 | 0.00 | 1 | 1012.3 |
| 20260506152503 | 68 | 181 | 8.0 | 19.0 | 0.00 | 0.00 | 0.00 | 1 | 1012.2 |
| 20260506152404 | 69 | 179 | 9.0 | 19.0 | 0.00 | 0.00 | 0.00 | 1 | 1012.2 |
| 20260506152325 | 69 | 178 | 9.0 | 19.0 | 0.00 | 0.00 | 0.00 | 1 | 1012.1 |
| 20260506152203 | 69 | 179 | 9.0 | 19.0 | 0.00 | 0.00 | 0.00 | 1 | 1012.1 |
| 20260506152103 | 70 | 178 | 9.0 | 19.0 | 0.00 | 0.00 | 0.00 | 1 | 1012.0 |
| 20260506152003 | 70 | 176 | 9.0 | 19.0 | 0.00 | 0.00 | 0.00 | 1 | 1012.1 |
| 20260506151925 | 70 | 176 | 8.0 | 19.0 | 0.00 | 0.00 | 0.00 | 1 | 1012.0 |
| 20260506151803 | 71 | 175 | 7.0 | 19.0 | 0.00 | 0.00 | 0.00 | 1 | 1012.0 |
| 20260506151703 | 71 | 174 | 7.0 | 18.0 | 0.00 | 0.00 | 0.00 | 1 | 1012.0 |
| 20260506151604 | 72 | 170 | 6.0 | 14.0 | 0.00 | 0.00 | 0.00 | 3 | 1012.0 |
| 20260506151503 | 73 | 168 | 5.0 | 14.0 | 0.00 | 0.00 | 0.00 | 7 | 1011.9 |
| 20260506151404 | 74 | 165 | 4.0 | 14.0 | 0.00 | 0.00 | 0.00 | 11 | 1011.9 |
| 20260506151304 | 75 | 164 | 3.0 | 14.0 | 0.00 | 0.00 | 0.00 | 1 | 1011.9 |
| 20260506151204 | 76 | 159 | 3.0 | 14.0 | 0.00 | 0.00 | 0.00 | 1 | 1011.9 |
| 20260506151104 | 78 | 149 | 2.0 | 13.0 | 0.00 | 0.00 | 0.00 | 1 | 1011.8 |
| 20260506151003 | 79 | 116 | 1.0 | 6.0 | 0.00 | 0.00 | 0.00 | 1 | 1011.7 |
| 20260506150904 | 79 | 115 | 1.0 | 6.0 | 0.00 | 0.00 | 0.00 | 1 | 1011.6 |
| 20260506150825 | 79 | 108 | 1.0 | 5.0 | 0.00 | 0.00 | 0.00 | 1 | 1011.4 |
| 20260506150704 | 79 | 105 | 1.0 | 4.0 | 0.00 | 0.00 | 0.00 | 1 | 1011.3 |
| 20260506150604 | 79 | 104 | 1.0 | 4.0 | 0.00 | 0.00 | 0.00 | 1 | 1011.3 |
| 20260506150504 | 79 | 101 | 0.0 | 3.0 | 0.00 | 0.00 | 0.00 | 1 | 1011.3 |
| 20260506150404 | 79 | 101 | 0.0 | 3.0 | 0.00 | 0.00 | 0.00 | 1 | 1011.3 |
| 20260506150305 | 79 | 101 | 0.0 | 3.0 | 0.00 | 0.00 | 0.00 | 1 | 1011.3 |
| 20260506150204 | 79 | 100 | 0.0 | 3.0 | 0.00 | 0.00 | 0.00 | 1 | 1011.2 |
| 20260506150104 | 79 | 100 | 0.0 | 3.0 | 0.00 | 0.00 | 0.00 | 1 | 1011.1 |
| 20260506150004 | 79 | 98 | 0.0 | 1.0 | 0.00 | 0.00 | 0.00 | 1 | 1011.1 |
| 20260506145904 | 79 | 0 | 0.0 | 0.0 | 0.00 | 0.00 | 0.00 | 1 | 1011.0 |
| 20260506145804 | 79 | 0 | 0.0 | 0.0 | 0.00 | 0.00 | 0.00 | 1 | 1011.1 |
| 20260506145704 | 79 | 295 | 0.0 | 2.0 | 0.00 | 0.00 | 0.00 | 1 | 1011.0 |
| 20260506145604 | 79 | 292 | 0.0 | 6.0 | 0.00 | 0.00 | 0.00 | 1 | 1011.0 |
| 20260506145504 | 79 | 286 | 1.0 | 6.0 | 0.00 | 0.00 | 0.00 | 1 | 1011.0 |
| 20260506145404 | 79 | 286 | 1.0 | 6.0 | 0.00 | 0.00 | 0.00 | 1 | 1011.0 |
| 20260506145305 | 79 | 286 | 1.0 | 6.0 | 0.00 | 0.00 | 0.00 | 1 | 1010.9 |
| 20260506145204 | 79 | 286 | 1.0 | 6.0 | 0.00 | 0.00 | 0.00 | 1 | 1010.9 |
| 20260506145104 | 79 | 286 | 1.0 | 6.0 | 0.00 | 0.00 | 0.00 | 1 | 1010.7 |
| 20260506145003 | 79 | 286 | 1.0 | 6.0 | 0.00 | 0.00 | 0.00 | 1 | 1010.8 |
| 20260506144904 | 79 | 286 | 1.0 | 6.0 | 0.00 | 0.00 | 0.00 | 1 | 1010.7 |
| 20260506144825 | 79 | 286 | 1.0 | 6.0 | 0.00 | 0.00 | 0.00 | 1 | 1010.7 |
| 20260506144725 | 79 | 286 | 1.0 | 6.0 | 0.00 | 0.00 | 0.00 | 1 | 1010.8 |
| 20260506144604 | 79 | 277 | 1.0 | 5.0 | 0.00 | 0.00 | 0.00 | 1 | 1010.8 |
| 20260506144504 | 79 | 271 | 1.0 | 4.0 | 0.00 | 0.00 | 0.00 | 1 | 1010.7 |
| 20260506144404 | 79 | 269 | 1.0 | 4.0 | 0.00 | 0.00 | 0.00 | 1 | 1010.7 |
| 20260506144325 | 79 | 269 | 1.0 | 4.0 | 0.00 | 0.00 | 0.00 | 1 | 1010.6 |
| 20260506144224 | 79 | 268 | 1.0 | 4.0 | 0.00 | 0.00 | 0.00 | 1 | 1010.6 |
| 20260506144104 | 79 | 267 | 1.0 | 4.0 | 0.00 | 0.00 | 0.00 | 1 | 1010.6 |
| 20260506144004 | 79 | 267 | 2.0 | 4.0 | 0.00 | 0.00 | 0.00 | 1 | 1010.6 |
| 20260506143925 | 79 | 266 | 2.0 | 5.0 | 0.00 | 0.00 | 0.00 | 1 | 1010.6 |
| 20260506143804 | 79 | 265 | 2.0 | 6.0 | 0.00 | 0.00 | 0.00 | 1 | 1010.5 |
| 20260506143704 | 79 | 264 | 3.0 | 7.0 | 0.00 | 0.00 | 0.00 | 1 | 1010.5 |
| 20260506143603 | 79 | 264 | 3.0 | 7.0 | 0.00 | 0.00 | 0.00 | 1 | 1010.5 |
| 20260506143504 | 79 | 263 | 3.0 | 7.0 | 0.00 | 0.00 | 0.00 | 1 | 1010.4 |
| 20260506143404 | 79 | 263 | 3.0 | 7.0 | 0.00 | 0.00 | 0.00 | 1 | 1010.4 |
| 20260506143304 | 79 | 261 | 3.0 | 7.0 | 0.00 | 0.00 | 0.00 | 1 | 1010.4 |
| 20260506143204 | 79 | 260 | 3.0 | 7.0 | 0.00 | 0.00 | 0.00 | 1 | 1010.4 |
| 20260506143104 | 79 | 259 | 3.0 | 7.0 | 0.00 | 0.00 | 0.00 | 1 | 1010.4 |
| 20260506143004 | 79 | 258 | 3.0 | 7.0 | 0.00 | 0.00 | 0.00 | 1 | 1010.4 |
| 20260506142903 | 79 | 257 | 3.0 | 7.0 | 0.00 | 0.00 | 0.00 | 1 | 1010.4 |
| 20260506142804 | 79 | 257 | 3.0 | 7.0 | 0.00 | 0.00 | 0.00 | 1 | 1010.4 |
| 20260506142704 | 79 | 257 | 3.0 | 6.0 | 0.00 | 0.00 | 0.00 | 1 | 1010.4 |
| 20260506142603 | 79 | 255 | 3.0 | 6.0 | 0.00 | 0.00 | 0.00 | 1 | 1010.3 |
| 20260506142524 | 79 | 251 | 3.0 | 6.0 | 0.00 | 0.00 | 0.00 | 1 | 1010.3 |
| 20260506142404 | 79 | 247 | 3.0 | 6.0 | 0.00 | 0.00 | 0.00 | 1 | 1010.2 |
| 20260506142325 | 78 | 238 | 3.0 | 6.0 | 0.00 | 0.00 | 0.00 | 1 | 1010.2 |
| 20260506142224 | 78 | 88 | 3.0 | 6.0 | 0.00 | 0.00 | 0.00 | 1 | 1010.1 |
| 20260506142104 | 78 | 72 | 3.0 | 6.0 | 0.00 | 0.00 | 0.00 | 1 | 1010.1 |
| 20260506142004 | 78 | 70 | 2.0 | 6.0 | 0.00 | 0.00 | 0.00 | 1 | 1010.1 |
| 20260506141903 | 78 | 71 | 2.0 | 6.0 | 0.00 | 0.00 | 0.00 | 1 | 1010.0 |
| 20260506141803 | 78 | 73 | 2.0 | 5.0 | 0.00 | 0.00 | 0.00 | 1 | 1010.0 |
| 20260506141704 | 78 | 74 | 2.0 | 5.0 | 0.00 | 0.00 | 0.00 | 1 | 1010.1 |
| 20260506141603 | 78 | 72 | 1.0 | 5.0 | 0.00 | 0.00 | 0.00 | 1 | 1010.1 |
| 20260506141504 | 78 | 68 | 1.0 | 5.0 | 0.00 | 0.00 | 0.00 | 1 | 1010.1 |
| 20260506141425 | 78 | 68 | 1.0 | 5.0 | 0.00 | 0.00 | 0.00 | 1 | 1010.1 |
| 20260506141303 | 78 | 62 | 0.0 | 4.0 | 0.00 | 0.00 | 0.00 | 1 | 1010.1 |
| 20260506141204 | 78 | 55 | 0.0 | 4.0 | 0.00 | 0.00 | 0.00 | 1 | 1010.1 |
| 20260506141104 | 78 | 0 | 0.0 | 0.0 | 0.00 | 0.00 | 0.00 | 1 | 1010.2 |
| 20260506141004 | 78 | 0 | 0.0 | 0.0 | 0.00 | 0.00 | 0.00 | 1 | 1010.3 |
| 20260506140904 | 78 | 0 | 0.0 | 0.0 | 0.00 | 0.00 | 0.00 | 1 | 1010.5 |
| 20260506140804 | 78 | 0 | 0.0 | 0.0 | 0.00 | 0.00 | 0.00 | 1 | 1010.5 |
| 20260506140725 | 78 | 0 | 0.0 | 0.0 | 0.00 | 0.00 | 0.00 | 1 | 1010.6 |
| 20260506140603 | 78 | 0 | 0.0 | 0.0 | 0.00 | 0.00 | 0.00 | 1 | 1010.7 |
| 20260506140524 | 78 | 0 | 0.0 | 0.0 | 0.00 | 0.00 | 0.00 | 1 | 1010.7 |
| 20260506140404 | 78 | 0 | 0.0 | 0.0 | 0.00 | 0.00 | 0.00 | 1 | 1010.6 |
| 20260506140304 | 78 | 0 | 0.0 | 0.0 | 0.00 | 0.00 | 0.00 | 1 | 1010.6 |
| 20260506140203 | 78 | 78 | 0.0 | 1.0 | 0.00 | 0.00 | 0.00 | 1 | 1010.7 |
| 20260506140104 | 78 | 77 | 0.0 | 1.0 | 0.00 | 0.00 | 0.00 | 1 | 1010.6 |
| 20260506140004 | 78 | 77 | 0.0 | 1.0 | 0.00 | 0.00 | 0.00 | 1 | 1010.6 |
| 20260506135904 | 78 | 77 | 0.0 | 1.0 | 0.00 | 0.00 | 0.00 | 1 | 1010.5 |
| 20260506135803 | 78 | 77 | 0.0 | 1.0 | 0.00 | 0.00 | 0.00 | 1 | 1010.4 |
| 20260506135724 | 78 | 77 | 0.0 | 1.0 | 0.00 | 0.00 | 0.00 | 1 | 1010.4 |
| 20260506135604 | 78 | 77 | 0.0 | 1.0 | 0.00 | 0.00 | 0.00 | 1 | 1010.3 |
| 20260506135504 | 77 | 77 | 0.0 | 1.0 | 0.00 | 0.00 | 0.00 | 1 | 1010.3 |
| 20260506135404 | 77 | 77 | 0.0 | 1.0 | 0.00 | 0.00 | 0.00 | 1 | 1010.2 |
| 20260506135306 | 77 | 77 | 0.0 | 1.0 | 0.00 | 0.00 | 0.00 | 1 | 1010.2 |
| 20260506135204 | 77 | 77 | 0.0 | 1.0 | 0.00 | 0.00 | 0.00 | 1 | 1010.2 |
| 20260506135104 | 77 | 77 | 0.0 | 1.0 | 0.00 | 0.00 | 0.00 | 1 | 1010.1 |
| 20260506135004 | 77 | 0 | 0.0 | 0.0 | 0.00 | 0.00 | 0.00 | 1 | 1010.1 |
| 20260506134904 | 77 | 0 | 0.0 | 0.0 | 0.00 | 0.00 | 0.00 | 1 | 1009.9 |
| 20260506134804 | 77 | 0 | 0.0 | 0.0 | 0.00 | 0.00 | 0.00 | 1 | 1009.9 |
| 20260506134704 | 77 | 0 | 0.0 | 0.0 | 0.00 | 0.00 | 0.00 | 1 | 1009.9 |
| 20260506134604 | 77 | 0 | 0.0 | 0.0 | 0.00 | 0.00 | 0.00 | 1 | 1009.9 |
| 20260506134525 | 77 | 0 | 0.0 | 0.0 | 0.00 | 0.00 | 0.00 | 1 | 1009.9 |
| 20260506134404 | 77 | 0 | 0.0 | 0.0 | 0.00 | 0.00 | 0.00 | 1 | 1009.9 |
| 20260506134304 | 77 | 0 | 0.0 | 0.0 | 0.00 | 0.00 | 0.00 | 1 | 1009.9 |
| 20260506134224 | 77 | 77 | 0.0 | 2.0 | 0.00 | 0.00 | 0.00 | 1 | 1009.9 |
| 20260506134103 | 77 | 77 | 0.0 | 3.0 | 0.00 | 0.00 | 0.00 | 1 | 1009.9 |
| 20260506134004 | 77 | 77 | 1.0 | 3.0 | 0.00 | 0.00 | 0.00 | 1 | 1009.9 |
| 20260506133904 | 77 | 77 | 1.0 | 3.0 | 0.00 | 0.00 | 0.00 | 1 | 1009.9 |
| 20260506133804 | 77 | 77 | 1.0 | 3.0 | 0.00 | 0.00 | 0.00 | 1 | 1009.9 |
| 20260506133704 | 77 | 77 | 1.0 | 3.0 | 0.00 | 0.00 | 0.00 | 1 | 1009.9 |
| 20260506133624 | 77 | 77 | 1.0 | 3.0 | 0.00 | 0.00 | 0.00 | 1 | 1009.9 |
| 20260506133504 | 77 | 77 | 1.0 | 5.0 | 0.00 | 0.00 | 0.00 | 1 | 1009.9 |
| 20260506133425 | 76 | 77 | 2.0 | 5.0 | 0.00 | 0.00 | 0.00 | 1 | 1009.9 |
| 20260506133304 | 76 | 78 | 2.0 | 5.0 | 0.00 | 0.00 | 0.00 | 1 | 1009.8 |
| 20260506133204 | 76 | 78 | 2.0 | 5.0 | 0.00 | 0.00 | 0.00 | 1 | 1009.8 |
| 20260506133104 | 76 | 78 | 2.0 | 5.0 | 0.00 | 0.00 | 0.00 | 1 | 1009.9 |
| 20260506133003 | 76 | 78 | 1.0 | 5.0 | 0.00 | 0.00 | 0.00 | 1 | 1009.9 |
| 20260506132924 | 76 | 78 | 1.0 | 5.0 | 0.00 | 0.00 | 0.00 | 1 | 1009.9 |
| 20260506132825 | 76 | 78 | 1.0 | 5.0 | 0.00 | 0.00 | 0.00 | 1 | 1009.8 |
| 20260506132704 | 76 | 78 | 1.0 | 5.0 | 0.00 | 0.00 | 0.00 | 1 | 1009.9 |
| 20260506132603 | 76 | 79 | 1.0 | 5.0 | 0.00 | 0.00 | 0.00 | 1 | 1009.8 |
| 20260506132504 | 76 | 80 | 1.0 | 3.0 | 0.00 | 0.00 | 0.00 | 1 | 1009.8 |
| 20260506132404 | 76 | 79 | 0.0 | 3.0 | 0.00 | 0.00 | 0.00 | 1 | 1009.9 |
| 20260506132307 | 76 | 78 | 0.0 | 2.0 | 0.00 | 0.00 | 0.00 | 1 | 1009.9 |
| 20260506132204 | 76 | 75 | 0.0 | 2.0 | 0.00 | 0.00 | 0.00 | 1 | 1009.9 |
| 20260506132104 | 76 | 0 | 0.0 | 0.0 | 0.00 | 0.00 | 0.00 | 1 | 1009.9 |
| 20260506132004 | 76 | 0 | 0.0 | 0.0 | 0.00 | 0.00 | 0.00 | 1 | 1009.9 |
| 20260506131904 | 76 | 0 | 0.0 | 0.0 | 0.00 | 0.00 | 0.00 | 1 | 1009.8 |
| 20260506131804 | 76 | 0 | 0.0 | 0.0 | 0.00 | 0.00 | 0.00 | 1 | 1009.8 |
| 20260506131703 | 76 | 0 | 0.0 | 0.0 | 0.00 | 0.00 | 0.00 | 1 | 1009.8 |
| 20260506131604 | 76 | 0 | 0.0 | 0.0 | 0.00 | 0.00 | 0.00 | 1 | 1009.8 |
| 20260506131504 | 76 | 0 | 0.0 | 0.0 | 0.00 | 0.00 | 0.00 | 1 | 1009.8 |
| 20260506131404 | 76 | 0 | 0.0 | 0.0 | 0.00 | 0.00 | 0.00 | 1 | 1009.9 |
| 20260506131304 | 76 | 0 | 0.0 | 0.0 | 0.00 | 0.00 | 0.00 | 1 | 1009.8 |
| 20260506131204 | 76 | 0 | 0.0 | 0.0 | 0.00 | 0.00 | 0.00 | 1 | 1009.9 |
| 20260506131104 | 76 | 0 | 0.0 | 0.0 | 0.00 | 0.00 | 0.00 | 1 | 1009.9 |
| 20260506131004 | 76 | 62 | 0.0 | 1.0 | 0.00 | 0.00 | 0.00 | 1 | 1009.9 |
| 20260506130904 | 76 | 63 | 0.0 | 3.0 | 0.00 | 0.00 | 0.00 | 1 | 1009.8 |
| 20260506130803 | 76 | 62 | 1.0 | 4.0 | 0.00 | 0.00 | 0.00 | 1 | 1009.8 |
| 20260506130703 | 76 | 63 | 1.0 | 4.0 | 0.00 | 0.00 | 0.00 | 1 | 1009.7 |
| 20260506130604 | 76 | 63 | 1.0 | 4.0 | 0.00 | 0.00 | 0.00 | 1 | 1009.7 |
| 20260506130504 | 76 | 63 | 1.0 | 4.0 | 0.00 | 0.00 | 0.00 | 1 | 1009.7 |
| 20260506130404 | 76 | 63 | 1.0 | 4.0 | 0.00 | 0.00 | 0.00 | 1 | 1009.7 |
| 20260506130303 | 76 | 63 | 1.0 | 4.0 | 0.00 | 0.00 | 0.00 | 1 | 1009.7 |
| 20260506130203 | 76 | 63 | 1.0 | 4.0 | 0.00 | 0.00 | 0.00 | 1 | 1009.6 |
| 20260506130104 | 76 | 63 | 1.0 | 4.0 | 0.00 | 0.00 | 0.00 | 1 | 1009.6 |
| 20260506130004 | 76 | 64 | 2.0 | 4.0 | 0.00 | 0.00 | 0.00 | 1 | 1009.5 |
| 20260506125903 | 76 | 64 | 2.0 | 4.0 | 0.00 | 0.00 | 0.00 | 1 | 1009.5 |
| 20260506125804 | 76 | 64 | 1.0 | 4.0 | 0.00 | 0.00 | 0.00 | 1 | 1009.5 |
| 20260506125704 | 76 | 64 | 1.0 | 4.0 | 0.00 | 0.00 | 0.00 | 1 | 1009.5 |
| 20260506125603 | 76 | 64 | 1.0 | 4.0 | 0.00 | 0.00 | 0.00 | 1 | 1009.5 |
| 20260506125504 | 76 | 64 | 1.0 | 4.0 | 0.00 | 0.00 | 0.00 | 1 | 1009.5 |
| 20260506125425 | 76 | 64 | 1.0 | 4.0 | 0.00 | 0.00 | 0.00 | 1 | 1009.5 |
| 20260506125305 | 76 | 65 | 1.0 | 4.0 | 0.00 | 0.00 | 0.00 | 1 | 1009.5 |
| 20260506125204 | 76 | 65 | 1.0 | 4.0 | 0.00 | 0.00 | 0.00 | 1 | 1009.5 |
| 20260506125104 | 76 | 65 | 1.0 | 4.0 | 0.00 | 0.00 | 0.00 | 1 | 1009.5 |
| 20260506125003 | 76 | 65 | 1.0 | 4.0 | 0.00 | 0.00 | 0.00 | 1 | 1009.5 |
| 20260506124904 | 76 | 65 | 1.0 | 2.0 | 0.00 | 0.00 | 0.00 | 1 | 1009.6 |
| 20260506124825 | 76 | 65 | 1.0 | 2.0 | 0.00 | 0.00 | 0.00 | 1 | 1009.5 |
| 20260506124704 | 76 | 65 | 1.0 | 2.0 | 0.00 | 0.00 | 0.00 | 1 | 1009.5 |
| 20260506124625 | 76 | 65 | 1.0 | 4.0 | 0.00 | 0.00 | 0.00 | 1 | 1009.5 |
| 20260506124504 | 76 | 65 | 1.0 | 4.0 | 0.00 | 0.00 | 0.00 | 1 | 1009.5 |
| 20260506124404 | 76 | 65 | 1.0 | 4.0 | 0.00 | 0.00 | 0.00 | 1 | 1009.5 |
| 20260506124303 | 75 | 66 | 1.0 | 4.0 | 0.00 | 0.00 | 0.00 | 1 | 1009.5 |
| 20260506124203 | 75 | 66 | 1.0 | 4.0 | 0.00 | 0.00 | 0.00 | 1 | 1009.5 |
| 20260506124125 | 75 | 66 | 1.0 | 4.0 | 0.00 | 0.00 | 0.00 | 1 | 1009.5 |
| 20260506124004 | 75 | 66 | 1.0 | 4.0 | 0.00 | 0.00 | 0.00 | 1 | 1009.5 |
| 20260506123904 | 75 | 66 | 1.0 | 4.0 | 0.00 | 0.00 | 0.00 | 1 | 1009.5 |
| 20260506123824 | 75 | 66 | 1.0 | 4.0 | 0.00 | 0.00 | 0.00 | 1 | 1009.5 |
| 20260506123704 | 75 | 66 | 0.0 | 4.0 | 0.00 | 0.00 | 0.00 | 1 | 1009.5 |
| 20260506123604 | 75 | 68 | 0.0 | 3.0 | 0.00 | 0.00 | 0.00 | 1 | 1009.5 |
| 20260506123525 | 75 | 68 | 0.0 | 1.0 | 0.00 | 0.00 | 0.00 | 1 | 1009.5 |
| 20260506123424 | 75 | 0 | 0.0 | 0.0 | 0.00 | 0.00 | 0.00 | 1 | 1009.5 |
| 20260506123304 | 75 | 0 | 0.0 | 0.0 | 0.00 | 0.00 | 0.00 | 1 | 1009.5 |
| 20260506123203 | 75 | 0 | 0.0 | 0.0 | 0.00 | 0.00 | 0.00 | 1 | 1009.5 |
| 20260506123103 | 75 | 0 | 0.0 | 0.0 | 0.00 | 0.00 | 0.00 | 1 | 1009.5 |
| 20260506123004 | 75 | 0 | 0.0 | 0.0 | 0.00 | 0.00 | 0.00 | 1 | 1009.5 |
| 20260506122904 | 75 | 0 | 0.0 | 0.0 | 0.00 | 0.00 | 0.00 | 1 | 1009.6 |
| 20260506122803 | 75 | 0 | 0.0 | 0.0 | 0.00 | 0.00 | 0.00 | 1 | 1009.6 |
| 20260506122725 | 75 | 0 | 0.0 | 0.0 | 0.00 | 0.00 | 0.00 | 1 | 1009.5 |
| 20260506122625 | 75 | 0 | 0.0 | 0.0 | 0.00 | 0.00 | 0.00 | 1 | 1009.6 |
| 20260506122504 | 75 | 68 | 0.0 | 3.0 | 0.00 | 0.00 | 0.00 | 1 | 1009.5 |
| 20260506122403 | 75 | 68 | 0.0 | 3.0 | 0.00 | 0.00 | 0.00 | 1 | 1009.5 |
| 20260506122306 | 75 | 68 | 0.0 | 3.0 | 0.00 | 0.00 | 0.00 | 1 | 1009.5 |
| 20260506122203 | 75 | 68 | 0.0 | 3.0 | 0.00 | 0.00 | 0.00 | 1 | 1009.5 |
| 20260506122104 | 75 | 68 | 0.0 | 3.0 | 0.00 | 0.00 | 0.00 | 1 | 1009.5 |
| 20260506122003 | 75 | 68 | 0.0 | 3.0 | 0.00 | 0.00 | 0.00 | 1 | 1009.5 |
| 20260506121924 | 75 | 68 | 0.0 | 3.0 | 0.00 | 0.00 | 0.00 | 1 | 1009.5 |
| 20260506121803 | 75 | 68 | 0.0 | 3.0 | 0.00 | 0.00 | 0.00 | 1 | 1009.5 |
| 20260506121703 | 75 | 68 | 0.0 | 3.0 | 0.00 | 0.00 | 0.00 | 1 | 1009.5 |
| 20260506121603 | 75 | 68 | 0.0 | 3.0 | 0.00 | 0.00 | 0.00 | 1 | 1009.5 |
| 20260506121525 | 75 | 68 | 0.0 | 1.0 | 0.00 | 0.00 | 0.00 | 1 | 1009.5 |
| 20260506121403 | 75 | 0 | 0.0 | 0.0 | 0.00 | 0.00 | 0.00 | 1 | 1009.4 |
| 20260506121303 | 75 | 0 | 0.0 | 0.0 | 0.00 | 0.00 | 0.00 | 1 | 1009.4 |
| 20260506121204 | 75 | 0 | 0.0 | 0.0 | 0.00 | 0.00 | 0.00 | 1 | 1009.5 |
| 20260506121125 | 75 | 0 | 0.0 | 0.0 | 0.00 | 0.00 | 0.00 | 1 | 1009.5 |
| 20260506121004 | 75 | 0 | 0.0 | 0.0 | 0.00 | 0.00 | 0.00 | 1 | 1009.4 |
| 20260506120903 | 75 | 0 | 0.0 | 0.0 | 0.00 | 0.00 | 0.00 | 1 | 1009.4 |
| 20260506120804 | 75 | 0 | 0.0 | 0.0 | 0.00 | 0.00 | 0.00 | 1 | 1009.4 |
| 20260506120704 | 75 | 0 | 0.0 | 0.0 | 0.00 | 0.00 | 0.00 | 1 | 1009.4 |
| 20260506120603 | 75 | 0 | 0.0 | 0.0 | 0.00 | 0.00 | 0.00 | 1 | 1009.4 |
| 20260506120504 | 75 | 0 | 0.0 | 0.0 | 0.00 | 0.00 | 0.00 | 1 | 1009.4 |
| 20260506120424 | 75 | 0 | 0.0 | 0.0 | 0.00 | 0.00 | 0.00 | 1 | 1009.4 |
| 20260506120303 | 75 | 0 | 0.0 | 0.0 | 0.00 | 0.00 | 0.00 | 1 | 1009.3 |
| 20260506120204 | 75 | 0 | 0.0 | 0.0 | 0.00 | 0.00 | 0.00 | 1 | 1009.3 |
| 20260506120103 | 75 | 0 | 0.0 | 0.0 | 0.00 | 0.00 | 0.00 | 1 | 1009.3 |
| 20260506120004 | 75 | 0 | 0.0 | 0.0 | 0.00 | 0.00 | 0.00 | 1 | 1009.3 |
| 20260506115925 | 75 | 0 | 0.0 | 0.0 | 0.00 | 0.00 | 0.00 | 1 | 1009.3 |
| 20260506115803 | 75 | 0 | 0.0 | 0.0 | 0.00 | 0.00 | 0.00 | 1 | 1009.3 |
| 20260506115725 | 75 | 0 | 0.0 | 0.0 | 0.00 | 0.00 | 0.00 | 1 | 1009.3 |
| 20260506115603 | 75 | 0 | 0.0 | 0.0 | 0.00 | 0.00 | 0.00 | 1 | 1009.2 |
| 20260506115504 | 75 | 0 | 0.0 | 0.0 | 0.00 | 0.00 | 0.00 | 1 | 1009.3 |
| 20260506115404 | 75 | 0 | 0.0 | 0.0 | 0.00 | 0.00 | 0.00 | 1 | 1009.3 |
| 20260506115306 | 75 | 0 | 0.0 | 0.0 | 0.00 | 0.00 | 0.00 | 1 | 1009.3 |
| 20260506115204 | 75 | 0 | 0.0 | 0.0 | 0.00 | 0.00 | 0.00 | 1 | 1009.3 |
| 20260506115103 | 75 | 0 | 0.0 | 0.0 | 0.00 | 0.00 | 0.00 | 1 | 1009.3 |
| 20260506115025 | 75 | 0 | 0.0 | 0.0 | 0.00 | 0.00 | 0.00 | 1 | 1009.3 |
| 20260506114904 | 76 | 0 | 0.0 | 0.0 | 0.00 | 0.00 | 0.00 | 1 | 1009.3 |
| 20260506114803 | 76 | 0 | 0.0 | 0.0 | 0.00 | 0.00 | 0.00 | 1 | 1009.2 |
| 20260506114704 | 76 | 0 | 0.0 | 0.0 | 0.00 | 0.00 | 0.00 | 1 | 1009.3 |
| 20260506114603 | 76 | 0 | 0.0 | 0.0 | 0.00 | 0.00 | 0.00 | 1 | 1009.3 |
| 20260506114503 | 76 | 0 | 0.0 | 0.0 | 0.00 | 0.00 | 0.00 | 1 | 1009.3 |
| 20260506114403 | 76 | 0 | 0.0 | 0.0 | 0.00 | 0.00 | 0.00 | 1 | 1009.3 |
| 20260506114303 | 76 | 0 | 0.0 | 0.0 | 0.00 | 0.00 | 0.00 | 1 | 1009.3 |
| 20260506114225 | 76 | 0 | 0.0 | 0.0 | 0.00 | 0.00 | 0.00 | 1 | 1009.4 |
| 20260506114103 | 76 | 0 | 0.0 | 0.0 | 0.00 | 0.00 | 0.00 | 1 | 1009.4 |
| 20260506114003 | 76 | 0 | 0.0 | 0.0 | 0.00 | 0.00 | 0.00 | 1 | 1009.4 |
| 20260506113904 | 76 | 0 | 0.0 | 0.0 | 0.00 | 0.00 | 0.00 | 1 | 1009.4 |
| 20260506113804 | 76 | 0 | 0.0 | 0.0 | 0.00 | 0.00 | 0.00 | 1 | 1009.5 |
| 20260506113703 | 76 | 0 | 0.0 | 0.0 | 0.00 | 0.00 | 0.00 | 1 | 1009.4 |
| 20260506113604 | 76 | 0 | 0.0 | 0.0 | 0.00 | 0.00 | 0.00 | 1 | 1009.4 |
| 20260506113503 | 76 | 68 | 0.0 | 2.0 | 0.00 | 0.00 | 0.00 | 1 | 1009.4 |
| 20260506113403 | 76 | 68 | 0.0 | 4.0 | 0.00 | 0.00 | 0.00 | 1 | 1009.4 |
| 20260506113304 | 76 | 68 | 0.0 | 4.0 | 0.00 | 0.00 | 0.00 | 1 | 1009.4 |
| 20260506113204 | 76 | 68 | 0.0 | 4.0 | 0.00 | 0.00 | 0.00 | 1 | 1009.4 |
| 20260506113103 | 76 | 68 | 1.0 | 4.0 | 0.00 | 0.00 | 0.00 | 1 | 1009.4 |
| 20260506113003 | 76 | 68 | 1.0 | 4.0 | 0.00 | 0.00 | 0.00 | 1 | 1009.4 |
| 20260506112903 | 76 | 68 | 1.0 | 4.0 | 0.00 | 0.00 | 0.00 | 1 | 1009.3 |
| 20260506112804 | 76 | 68 | 1.0 | 4.0 | 0.00 | 0.00 | 0.00 | 1 | 1009.3 |
| 20260506112703 | 76 | 68 | 1.0 | 4.0 | 0.00 | 0.00 | 0.00 | 1 | 1009.2 |
| 20260506112603 | 76 | 68 | 1.0 | 4.0 | 0.00 | 0.00 | 0.00 | 1 | 1009.3 |
| 20260506112503 | 76 | 68 | 1.0 | 4.0 | 0.00 | 0.00 | 0.00 | 1 | 1009.3 |
| 20260506112404 | 76 | 68 | 1.0 | 4.0 | 0.00 | 0.00 | 0.00 | 1 | 1009.3 |
| 20260506112324 | 76 | 69 | 1.0 | 4.0 | 0.00 | 0.00 | 0.00 | 1 | 1009.4 |
| 20260506112204 | 76 | 69 | 1.0 | 4.0 | 0.00 | 0.00 | 0.00 | 1 | 1009.3 |
| 20260506112103 | 76 | 69 | 1.0 | 4.0 | 0.00 | 0.00 | 0.00 | 1 | 1009.3 |
| 20260506112003 | 76 | 69 | 1.0 | 4.0 | 0.00 | 0.00 | 0.00 | 1 | 1009.3 |
| 20260506111903 | 76 | 69 | 1.0 | 3.0 | 0.00 | 0.00 | 0.00 | 1 | 1009.3 |
| 20260506111804 | 76 | 69 | 1.0 | 3.0 | 0.00 | 0.00 | 0.00 | 1 | 1009.3 |
| 20260506111703 | 76 | 69 | 1.0 | 3.0 | 0.00 | 0.00 | 0.00 | 1 | 1009.3 |
| 20260506111604 | 76 | 69 | 1.0 | 3.0 | 0.00 | 0.00 | 0.00 | 1 | 1009.3 |
| 20260506111504 | 76 | 69 | 1.0 | 3.0 | 0.00 | 0.00 | 0.00 | 1 | 1009.3 |
| 20260506111404 | 76 | 69 | 1.0 | 3.0 | 0.00 | 0.00 | 0.00 | 1 | 1009.3 |
| 20260506111303 | 76 | 69 | 1.0 | 3.0 | 0.00 | 0.00 | 0.00 | 1 | 1009.3 |
| 20260506111225 | 76 | 69 | 1.0 | 3.0 | 0.00 | 0.00 | 0.00 | 1 | 1009.3 |
| 20260506111103 | 76 | 69 | 1.0 | 3.0 | 0.00 | 0.00 | 0.00 | 1 | 1009.3 |
| 20260506111003 | 76 | 69 | 1.0 | 3.0 | 0.00 | 0.00 | 0.00 | 1 | 1009.3 |
| 20260506110903 | 76 | 70 | 1.0 | 3.0 | 0.00 | 0.00 | 0.00 | 1 | 1009.3 |
| 20260506110804 | 76 | 70 | 1.0 | 3.0 | 0.00 | 0.00 | 0.00 | 1 | 1009.3 |
| 20260506110703 | 76 | 70 | 0.0 | 2.0 | 0.00 | 0.00 | 0.00 | 1 | 1009.3 |
| 20260506110603 | 76 | 70 | 0.0 | 2.0 | 0.00 | 0.00 | 0.00 | 1 | 1009.3 |
| 20260506110503 | 76 | 70 | 0.0 | 2.0 | 0.00 | 0.00 | 0.00 | 1 | 1009.3 |
| 20260506110404 | 76 | 70 | 0.0 | 2.0 | 0.00 | 0.00 | 0.00 | 1 | 1009.3 |
| 20260506110303 | 76 | 0 | 0.0 | 0.0 | 0.00 | 0.00 | 0.00 | 1 | 1009.3 |
| 20260506110203 | 76 | 0 | 0.0 | 0.0 | 0.00 | 0.00 | 0.00 | 1 | 1009.2 |
| 20260506110103 | 76 | 0 | 0.0 | 0.0 | 0.00 | 0.00 | 0.00 | 1 | 1009.3 |
| 20260506110004 | 76 | 0 | 0.0 | 0.0 | 0.00 | 0.00 | 0.00 | 1 | 1009.4 |
| 20260506105903 | 76 | 0 | 0.0 | 0.0 | 0.00 | 0.00 | 0.00 | 1 | 1009.3 |
| 20260506105804 | 76 | 0 | 0.0 | 0.0 | 0.00 | 0.00 | 0.00 | 1 | 1009.3 |
| 20260506105703 | 76 | 0 | 0.0 | 0.0 | 0.00 | 0.00 | 0.00 | 1 | 1009.3 |
| 20260506105604 | 76 | 63 | 0.0 | 1.0 | 0.00 | 0.00 | 0.00 | 1 | 1009.3 |
| 20260506105503 | 76 | 64 | 0.0 | 2.0 | 0.00 | 0.00 | 0.00 | 1 | 1009.3 |
| 20260506105403 | 76 | 64 | 0.0 | 2.0 | 0.00 | 0.00 | 0.00 | 1 | 1009.2 |
| 20260506105305 | 76 | 64 | 0.0 | 3.0 | 0.00 | 0.00 | 0.00 | 1 | 1009.2 |
| 20260506105224 | 76 | 64 | 0.0 | 3.0 | 0.00 | 0.00 | 0.00 | 1 | 1009.2 |
| 20260506105104 | 76 | 64 | 0.0 | 3.0 | 0.00 | 0.00 | 0.00 | 1 | 1009.2 |
| 20260506105003 | 76 | 64 | 1.0 | 3.0 | 0.00 | 0.00 | 0.00 | 1 | 1009.2 |
| 20260506104925 | 76 | 64 | 1.0 | 3.0 | 0.00 | 0.00 | 0.00 | 1 | 1009.2 |
| 20260506104824 | 76 | 64 | 1.0 | 4.0 | 0.00 | 0.00 | 0.00 | 1 | 1009.2 |
| 20260506104725 | 76 | 64 | 1.0 | 5.0 | 0.00 | 0.00 | 0.00 | 1 | 1009.1 |
| 20260506104603 | 76 | 64 | 1.0 | 5.0 | 0.00 | 0.00 | 0.00 | 1 | 1009.1 |
| 20260506104504 | 76 | 64 | 1.0 | 5.0 | 0.00 | 0.00 | 0.00 | 1 | 1009.1 |
| 20260506104424 | 76 | 64 | 1.0 | 5.0 | 0.00 | 0.00 | 0.00 | 1 | 1009.1 |
| 20260506104325 | 76 | 64 | 1.0 | 5.0 | 0.00 | 0.00 | 0.00 | 1 | 1009.1 |
| 20260506104225 | 76 | 65 | 1.0 | 5.0 | 0.00 | 0.00 | 0.00 | 1 | 1009.1 |
| 20260506104103 | 76 | 65 | 1.0 | 5.0 | 0.00 | 0.00 | 0.00 | 1 | 1009.0 |
| 20260506104003 | 76 | 65 | 1.0 | 5.0 | 0.00 | 0.00 | 0.00 | 1 | 1009.0 |
| 20260506103904 | 76 | 64 | 0.0 | 5.0 | 0.00 | 0.00 | 0.00 | 1 | 1008.9 |
| 20260506103804 | 76 | 0 | 0.0 | 0.0 | 0.00 | 0.00 | 0.00 | 1 | 1009.0 |
| 20260506103704 | 76 | 0 | 0.0 | 0.0 | 0.00 | 0.00 | 0.00 | 1 | 1009.0 |
| 20260506103604 | 76 | 63 | 0.0 | 5.0 | 0.00 | 0.00 | 0.00 | 1 | 1009.0 |
| 20260506103504 | 76 | 66 | 1.0 | 7.0 | 0.00 | 0.00 | 0.00 | 1 | 1009.0 |
| 20260506103403 | 76 | 64 | 1.0 | 7.0 | 0.00 | 0.00 | 0.00 | 1 | 1009.0 |
| 20260506103325 | 76 | 63 | 1.0 | 7.0 | 0.00 | 0.00 | 0.00 | 1 | 1009.0 |
| 20260506103203 | 76 | 63 | 1.0 | 7.0 | 0.00 | 0.00 | 0.00 | 1 | 1009.0 |
| 20260506103103 | 76 | 63 | 1.0 | 7.0 | 0.00 | 0.00 | 0.00 | 1 | 1009.0 |
| 20260506103003 | 76 | 63 | 1.0 | 7.0 | 0.00 | 0.00 | 0.00 | 1 | 1009.0 |
| 20260506102925 | 76 | 64 | 2.0 | 7.0 | 0.00 | 0.00 | 0.00 | 1 | 1009.0 |
| 20260506102803 | 76 | 66 | 2.0 | 7.0 | 0.00 | 0.00 | 0.00 | 1 | 1009.1 |
| 20260506102703 | 76 | 66 | 2.0 | 7.0 | 0.00 | 0.00 | 0.00 | 1 | 1009.1 |
| 20260506102625 | 76 | 67 | 2.0 | 7.0 | 0.00 | 0.00 | 0.00 | 1 | 1009.1 |
| 20260506102503 | 76 | 67 | 2.0 | 6.0 | 0.00 | 0.00 | 0.00 | 1 | 1009.1 |
| 20260506102403 | 76 | 62 | 2.0 | 6.0 | 0.00 | 0.00 | 0.00 | 1 | 1009.1 |
| 20260506102305 | 76 | 62 | 2.0 | 6.0 | 0.00 | 0.00 | 0.00 | 1 | 1009.1 |
| 20260506102225 | 76 | 61 | 2.0 | 6.0 | 0.00 | 0.00 | 0.00 | 1 | 1009.1 |
| 20260506102124 | 76 | 61 | 2.0 | 6.0 | 0.00 | 0.00 | 0.00 | 1 | 1009.1 |
| 20260506102024 | 76 | 62 | 2.0 | 6.0 | 0.00 | 0.00 | 0.00 | 1 | 1009.0 |
| 20260506101904 | 76 | 62 | 2.0 | 6.0 | 0.00 | 0.00 | 0.00 | 1 | 1009.0 |
| 20260506101803 | 76 | 62 | 2.0 | 6.0 | 0.00 | 0.00 | 0.00 | 1 | 1009.0 |
| 20260506101703 | 76 | 62 | 2.0 | 6.0 | 0.00 | 0.00 | 0.00 | 1 | 1009.0 |
| 20260506101603 | 76 | 63 | 2.0 | 6.0 | 0.00 | 0.00 | 0.00 | 1 | 1009.0 |
| 20260506101503 | 76 | 62 | 2.0 | 6.0 | 0.00 | 0.00 | 0.00 | 1 | 1009.0 |
| 20260506101424 | 76 | 63 | 2.0 | 6.0 | 0.00 | 0.00 | 0.00 | 1 | 1009.0 |
| 20260506101324 | 76 | 67 | 2.0 | 6.0 | 0.00 | 0.00 | 0.00 | 1 | 1008.9 |
| 20260506101204 | 76 | 64 | 2.0 | 6.0 | 0.00 | 0.00 | 0.00 | 1 | 1009.0 |
| 20260506101103 | 76 | 56 | 2.0 | 7.0 | 0.00 | 0.00 | 0.00 | 1 | 1008.9 |
| 20260506101004 | 76 | 48 | 2.0 | 7.0 | 0.00 | 0.00 | 0.00 | 1 | 1008.9 |
| 20260506100903 | 76 | 37 | 2.0 | 7.0 | 0.00 | 0.00 | 0.00 | 1 | 1008.9 |
| 20260506100804 | 76 | 24 | 2.0 | 7.0 | 0.00 | 0.00 | 0.00 | 1 | 1008.9 |
| 20260506100725 | 76 | 13 | 2.0 | 7.0 | 0.00 | 0.00 | 0.00 | 1 | 1008.9 |
| 20260506100603 | 76 | 357 | 2.0 | 7.0 | 0.00 | 0.00 | 0.00 | 1 | 1008.9 |
| 20260506100503 | 76 | 341 | 1.0 | 7.0 | 0.00 | 0.00 | 0.00 | 1 | 1008.9 |
| 20260506100404 | 76 | 341 | 1.0 | 7.0 | 0.00 | 0.00 | 0.00 | 1 | 1008.9 |
| 20260506100303 | 76 | 341 | 1.0 | 7.0 | 0.00 | 0.00 | 0.00 | 1 | 1008.9 |
| 20260506100225 | 76 | 325 | 1.0 | 7.0 | 0.00 | 0.00 | 0.00 | 1 | 1008.8 |
| 20260506100104 | 76 | 323 | 1.0 | 4.0 | 0.00 | 0.00 | 0.00 | 1 | 1008.8 |
| 20260506100004 | 76 | 322 | 1.0 | 4.0 | 0.00 | 0.00 | 0.00 | 1 | 1008.8 |
| 20260506095903 | 76 | 321 | 0.0 | 4.0 | 0.00 | 0.00 | 0.00 | 1 | 1008.8 |
| 20260506095804 | 76 | 319 | 0.0 | 4.0 | 0.00 | 0.00 | 0.00 | 1 | 1008.8 |
| 20260506095724 | 76 | 329 | 0.0 | 4.0 | 0.00 | 0.00 | 0.00 | 1 | 1008.8 |
| 20260506095604 | 76 | 51 | 0.0 | 5.0 | 0.00 | 0.00 | 0.00 | 1 | 1008.7 |
| 20260506095504 | 76 | 44 | 1.0 | 8.0 | 0.00 | 0.00 | 0.00 | 1 | 1008.7 |
| 20260506095403 | 76 | 44 | 1.0 | 8.0 | 0.00 | 0.00 | 0.00 | 1 | 1008.8 |
| 20260506095305 | 76 | 44 | 1.0 | 8.0 | 0.00 | 0.00 | 0.00 | 1 | 1008.7 |
| 20260506095203 | 76 | 44 | 1.0 | 8.0 | 0.00 | 0.00 | 0.00 | 1 | 1008.7 |
| 20260506095103 | 76 | 44 | 1.0 | 8.0 | 0.00 | 0.00 | 0.00 | 1 | 1008.7 |
| 20260506095003 | 76 | 44 | 1.0 | 8.0 | 0.00 | 0.00 | 0.00 | 1 | 1008.7 |
| 20260506094904 | 76 | 44 | 1.0 | 8.0 | 0.00 | 0.00 | 0.00 | 1 | 1008.7 |
| 20260506094803 | 76 | 44 | 1.0 | 8.0 | 0.00 | 0.00 | 0.00 | 1 | 1008.7 |
| 20260506094704 | 76 | 42 | 1.0 | 8.0 | 0.00 | 0.00 | 0.00 | 1 | 1008.7 |
| 20260506094603 | 76 | 41 | 0.0 | 8.0 | 0.00 | 0.00 | 0.00 | 1 | 1008.6 |
| 20260506094503 | 76 | 0 | 0.0 | 0.0 | 0.00 | 0.00 | 0.00 | 1 | 1008.7 |
| 20260506094424 | 76 | 0 | 0.0 | 0.0 | 0.00 | 0.00 | 0.00 | 1 | 1008.6 |
| 20260506094303 | 76 | 65 | 0.0 | 3.0 | 0.00 | 0.00 | 0.00 | 1 | 1008.6 |
| 20260506094203 | 76 | 62 | 1.0 | 4.0 | 0.00 | 0.00 | 0.00 | 1 | 1008.6 |
| 20260506094103 | 76 | 53 | 1.0 | 5.0 | 0.00 | 0.00 | 0.00 | 1 | 1008.6 |
| 20260506094004 | 76 | 52 | 1.0 | 5.0 | 0.00 | 0.00 | 0.00 | 1 | 1008.6 |
| 20260506093904 | 76 | 51 | 1.0 | 5.0 | 0.00 | 0.00 | 0.00 | 1 | 1008.6 |
| 20260506093825 | 76 | 51 | 1.0 | 5.0 | 0.00 | 0.00 | 0.00 | 1 | 1008.6 |
| 20260506093704 | 76 | 51 | 1.0 | 5.0 | 0.00 | 0.00 | 0.00 | 1 | 1008.6 |
| 20260506093604 | 76 | 53 | 2.0 | 5.0 | 0.00 | 0.00 | 0.00 | 1 | 1008.6 |
| 20260506093504 | 76 | 53 | 2.0 | 6.0 | 0.00 | 0.00 | 0.00 | 1 | 1008.5 |
| 20260506093404 | 76 | 53 | 2.0 | 6.0 | 0.00 | 0.00 | 0.00 | 1 | 1008.5 |
| 20260506093304 | 76 | 52 | 2.0 | 6.0 | 0.00 | 0.00 | 0.00 | 1 | 1008.5 |
| 20260506093203 | 76 | 54 | 2.0 | 6.0 | 0.00 | 0.00 | 0.00 | 1 | 1008.5 |
| 20260506093103 | 76 | 57 | 2.0 | 6.0 | 0.00 | 0.00 | 0.00 | 1 | 1008.5 |
| 20260506093004 | 76 | 58 | 2.0 | 6.0 | 0.00 | 0.00 | 0.00 | 1 | 1008.5 |
| 20260506092924 | 76 | 59 | 2.0 | 6.0 | 0.00 | 0.00 | 0.00 | 1 | 1008.4 |
| 20260506092803 | 76 | 61 | 2.0 | 6.0 | 0.00 | 0.00 | 0.00 | 1 | 1008.5 |
| 20260506092724 | 76 | 61 | 2.0 | 6.0 | 0.00 | 0.00 | 0.00 | 1 | 1008.5 |
| 20260506092603 | 76 | 64 | 2.0 | 6.0 | 0.00 | 0.00 | 0.00 | 1 | 1008.4 |
| 20260506092504 | 76 | 67 | 2.0 | 5.0 | 0.00 | 0.00 | 0.00 | 1 | 1008.5 |
| 20260506092403 | 76 | 69 | 2.0 | 5.0 | 0.00 | 0.00 | 0.00 | 1 | 1008.5 |
| 20260506092324 | 76 | 70 | 2.0 | 5.0 | 0.00 | 0.00 | 0.00 | 1 | 1008.5 |
| 20260506092204 | 76 | 71 | 2.0 | 5.0 | 0.00 | 0.00 | 0.00 | 1 | 1008.4 |
| 20260506092104 | 76 | 70 | 2.0 | 5.0 | 0.00 | 0.00 | 0.00 | 1 | 1008.5 |
| 20260506092024 | 76 | 70 | 2.0 | 7.0 | 0.00 | 0.00 | 0.00 | 1 | 1008.4 |
| 20260506091904 | 76 | 70 | 2.0 | 7.0 | 0.00 | 0.00 | 0.00 | 1 | 1008.4 |
| 20260506091804 | 76 | 70 | 2.0 | 7.0 | 0.00 | 0.00 | 0.00 | 1 | 1008.4 |
| 20260506091704 | 76 | 70 | 2.0 | 7.0 | 0.00 | 0.00 | 0.00 | 1 | 1008.4 |
| 20260506091603 | 76 | 69 | 1.0 | 7.0 | 0.00 | 0.00 | 0.00 | 1 | 1008.4 |
| 20260506091503 | 76 | 49 | 2.0 | 7.0 | 0.00 | 0.00 | 0.00 | 1 | 1008.3 |
| 20260506091404 | 76 | 38 | 2.0 | 7.0 | 0.00 | 0.00 | 0.00 | 1 | 1008.3 |
| 20260506091324 | 76 | 34 | 1.0 | 7.0 | 0.00 | 0.00 | 0.00 | 1 | 1008.3 |
| 20260506091204 | 76 | 26 | 1.0 | 7.0 | 0.00 | 0.00 | 0.00 | 1 | 1008.2 |
| 20260506091103 | 76 | 25 | 2.0 | 7.0 | 0.00 | 0.00 | 0.00 | 1 | 1008.2 |
| 20260506091003 | 76 | 32 | 2.0 | 9.0 | 0.00 | 0.00 | 0.00 | 1 | 1008.2 |
| 20260506090903 | 76 | 35 | 2.0 | 9.0 | 0.00 | 0.00 | 0.00 | 1 | 1008.1 |
| 20260506090803 | 76 | 40 | 3.0 | 9.0 | 0.00 | 0.00 | 0.00 | 1 | 1008.2 |
| 20260506090704 | 76 | 41 | 3.0 | 9.0 | 0.00 | 0.00 | 0.00 | 1 | 1008.2 |
| 20260506090603 | 76 | 43 | 3.0 | 9.0 | 0.00 | 0.00 | 0.00 | 1 | 1008.2 |
| 20260506090503 | 76 | 49 | 3.0 | 9.0 | 0.00 | 0.00 | 0.00 | 1 | 1008.2 |
| 20260506090403 | 76 | 53 | 3.0 | 9.0 | 0.00 | 0.00 | 0.00 | 1 | 1008.2 |
| 20260506090303 | 76 | 54 | 4.0 | 9.0 | 0.00 | 0.00 | 0.00 | 1 | 1008.1 |
| 20260506090204 | 76 | 54 | 4.0 | 9.0 | 0.00 | 0.00 | 0.00 | 1 | 1008.1 |
| 20260506090103 | 76 | 56 | 4.0 | 9.0 | 0.00 | 0.00 | 0.00 | 1 | 1008.2 |
| 20260506090024 | 76 | 56 | 4.0 | 9.0 | 0.00 | 0.00 | 0.00 | 1 | 1008.2 |
| 20260506085903 | 76 | 50 | 4.0 | 9.0 | 0.00 | 0.00 | 0.00 | 1 | 1008.2 |
| 20260506085804 | 76 | 49 | 4.0 | 9.0 | 0.00 | 0.00 | 0.00 | 1 | 1008.1 |
| 20260506085703 | 76 | 50 | 4.0 | 9.0 | 0.00 | 0.00 | 0.00 | 1 | 1008.1 |
| 20260506085603 | 76 | 50 | 4.0 | 9.0 | 0.00 | 0.00 | 0.00 | 1 | 1008.2 |
| 20260506085504 | 76 | 48 | 4.0 | 9.0 | 0.00 | 0.00 | 0.00 | 1 | 1008.1 |
| 20260506085403 | 76 | 50 | 4.0 | 9.0 | 0.00 | 0.00 | 0.00 | 1 | 1008.1 |
| 20260506085306 | 76 | 49 | 5.0 | 9.0 | 0.00 | 0.00 | 0.00 | 1 | 1008.1 |
| 20260506085203 | 76 | 49 | 4.0 | 9.0 | 0.00 | 0.00 | 0.00 | 1 | 1008.1 |
| 20260506085104 | 76 | 46 | 4.0 | 9.0 | 0.00 | 0.00 | 0.00 | 1 | 1008.1 |
| 20260506085003 | 76 | 46 | 4.0 | 9.0 | 0.00 | 0.00 | 0.00 | 1 | 1008.1 |
| 20260506084904 | 76 | 52 | 4.0 | 9.0 | 0.00 | 0.00 | 0.00 | 1 | 1008.0 |
| 20260506084803 | 76 | 52 | 4.0 | 9.0 | 0.00 | 0.00 | 0.00 | 1 | 1008.0 |
| 20260506084703 | 76 | 51 | 4.0 | 9.0 | 0.00 | 0.00 | 0.00 | 1 | 1008.1 |
| 20260506084603 | 76 | 50 | 4.0 | 9.0 | 0.00 | 0.00 | 0.00 | 1 | 1008.1 |
| 20260506084503 | 76 | 51 | 4.0 | 10.0 | 0.00 | 0.00 | 0.00 | 1 | 1008.1 |
| 20260506084403 | 76 | 46 | 4.0 | 10.0 | 0.00 | 0.00 | 0.00 | 1 | 1008.1 |
| 20260506084303 | 76 | 46 | 4.0 | 10.0 | 0.00 | 0.00 | 0.00 | 1 | 1008.1 |
| 20260506084203 | 76 | 46 | 4.0 | 10.0 | 0.00 | 0.00 | 0.00 | 1 | 1008.1 |
| 20260506084103 | 76 | 47 | 4.0 | 10.0 | 0.00 | 0.00 | 0.00 | 1 | 1008.1 |
| 20260506084004 | 76 | 46 | 4.0 | 14.0 | 0.00 | 0.00 | 0.00 | 1 | 1008.1 |
| 20260506083903 | 76 | 46 | 4.0 | 14.0 | 0.00 | 0.00 | 0.00 | 1 | 1008.1 |
| 20260506083804 | 76 | 44 | 4.0 | 14.0 | 0.00 | 0.00 | 0.00 | 1 | 1008.0 |
| 20260506083704 | 76 | 45 | 4.0 | 14.0 | 0.00 | 0.00 | 0.00 | 1 | 1008.0 |
| 20260506083603 | 76 | 43 | 4.0 | 14.0 | 0.00 | 0.00 | 0.00 | 1 | 1008.1 |
| 20260506083503 | 76 | 44 | 4.0 | 14.0 | 0.00 | 0.00 | 0.00 | 1 | 1008.1 |
| 20260506083403 | 76 | 48 | 4.0 | 14.0 | 0.00 | 0.00 | 0.00 | 1 | 1008.1 |
| 20260506083304 | 76 | 49 | 4.0 | 14.0 | 0.00 | 0.00 | 0.00 | 1 | 1008.1 |
| 20260506083203 | 76 | 49 | 4.0 | 14.0 | 0.00 | 0.00 | 0.00 | 1 | 1008.1 |
| 20260506083124 | 76 | 48 | 4.0 | 14.0 | 0.00 | 0.00 | 0.00 | 1 | 1008.1 |
| 20260506083003 | 76 | 49 | 4.0 | 10.0 | 0.00 | 0.00 | 0.00 | 1 | 1008.1 |
| 20260506082903 | 76 | 49 | 4.0 | 10.0 | 0.00 | 0.00 | 0.00 | 1 | 1008.0 |
| 20260506082803 | 76 | 50 | 4.0 | 10.0 | 0.00 | 0.00 | 0.00 | 1 | 1008.1 |
| 20260506082704 | 76 | 50 | 4.0 | 10.0 | 0.00 | 0.00 | 0.00 | 1 | 1008.1 |
| 20260506082603 | 76 | 52 | 4.0 | 10.0 | 0.00 | 0.00 | 0.00 | 1 | 1008.1 |
| 20260506082503 | 76 | 53 | 4.0 | 10.0 | 0.00 | 0.00 | 0.00 | 1 | 1008.0 |
| 20260506082403 | 76 | 54 | 4.0 | 9.0 | 0.00 | 0.00 | 0.00 | 1 | 1008.0 |
| 20260506082305 | 76 | 52 | 4.0 | 9.0 | 0.00 | 0.00 | 0.00 | 1 | 1008.0 |
| 20260506082203 | 76 | 50 | 4.0 | 9.0 | 0.00 | 0.00 | 0.00 | 1 | 1008.0 |
| 20260506082103 | 76 | 49 | 4.0 | 9.0 | 0.00 | 0.00 | 0.00 | 1 | 1008.0 |
| 20260506082004 | 76 | 48 | 4.0 | 9.0 | 0.00 | 0.00 | 0.00 | 1 | 1008.0 |
| 20260506081903 | 76 | 47 | 4.0 | 9.0 | 0.00 | 0.00 | 0.00 | 1 | 1008.0 |
| 20260506081803 | 76 | 45 | 4.0 | 9.0 | 0.00 | 0.00 | 0.00 | 1 | 1008.0 |
| 20260506081703 | 76 | 43 | 4.0 | 9.0 | 0.00 | 0.00 | 0.00 | 1 | 1008.0 |
| 20260506081604 | 76 | 42 | 4.0 | 9.0 | 0.00 | 0.00 | 0.00 | 1 | 1008.0 |
| 20260506081503 | 76 | 41 | 4.0 | 9.0 | 0.00 | 0.00 | 0.00 | 1 | 1008.1 |
| 20260506081403 | 76 | 39 | 4.0 | 9.0 | 0.00 | 0.00 | 0.00 | 1 | 1008.1 |
| 20260506081324 | 76 | 40 | 4.0 | 8.0 | 0.00 | 0.00 | 0.00 | 1 | 1008.1 |
| 20260506081224 | 76 | 40 | 4.0 | 8.0 | 0.00 | 0.00 | 0.00 | 1 | 1008.1 |
| 20260506081104 | 76 | 44 | 4.0 | 9.0 | 0.00 | 0.00 | 0.00 | 1 | 1008.1 |
| 20260506081003 | 76 | 42 | 4.0 | 9.0 | 0.00 | 0.00 | 0.00 | 1 | 1008.1 |
| 20260506080924 | 76 | 41 | 4.0 | 9.0 | 0.00 | 0.00 | 0.00 | 1 | 1008.0 |
| 20260506080804 | 76 | 42 | 4.0 | 9.0 | 0.00 | 0.00 | 0.00 | 1 | 1008.0 |
| 20260506080703 | 76 | 44 | 4.0 | 9.0 | 0.00 | 0.00 | 0.00 | 1 | 1008.0 |
| 20260506080604 | 76 | 44 | 4.0 | 9.0 | 0.00 | 0.00 | 0.00 | 1 | 1008.0 |
| 20260506080503 | 76 | 46 | 4.0 | 9.0 | 0.00 | 0.00 | 0.00 | 1 | 1008.0 |
| 20260506080403 | 76 | 47 | 4.0 | 9.0 | 0.00 | 0.00 | 0.00 | 1 | 1008.0 |
| 20260506080303 | 76 | 45 | 4.0 | 11.0 | 0.00 | 0.00 | 0.00 | 1 | 1008.1 |
| 20260506080225 | 76 | 45 | 4.0 | 11.0 | 0.00 | 0.00 | 0.00 | 1 | 1008.1 |
| 20260506080104 | 76 | 43 | 4.0 | 11.0 | 0.00 | 0.00 | 0.00 | 1 | 1008.1 |
| 20260506073504 | 76 | 46 | 6.0 | 12.0 | 0.00 | 0.00 | 0.00 | 1 | 1008.1 |
| 20260506073403 | 76 | 45 | 6.0 | 11.0 | 0.00 | 0.00 | 0.00 | 1 | 1008.2 |
| 20260506073303 | 76 | 47 | 6.0 | 11.0 | 0.00 | 0.00 | 0.00 | 1 | 1008.2 |
| 20260506073203 | 76 | 44 | 6.0 | 11.0 | 0.00 | 0.00 | 0.00 | 1 | 1008.2 |
| 20260506073124 | 76 | 44 | 6.0 | 14.0 | 0.00 | 0.00 | 0.00 | 1 | 1008.2 |
| 20260506073004 | 76 | 43 | 6.0 | 14.0 | 0.00 | 0.00 | 0.00 | 1 | 1008.2 |
| 20260506072904 | 76 | 38 | 6.0 | 14.0 | 0.00 | 0.00 | 0.00 | 1 | 1008.2 |
| 20260506072803 | 76 | 38 | 7.0 | 14.0 | 0.00 | 0.00 | 0.00 | 1 | 1008.1 |
| 20260506072724 | 76 | 38 | 7.0 | 14.0 | 0.00 | 0.00 | 0.00 | 1 | 1008.2 |
| 20260506072624 | 76 | 37 | 7.0 | 14.0 | 0.00 | 0.00 | 0.00 | 1 | 1008.2 |
| 20260506072504 | 76 | 35 | 6.0 | 14.0 | 0.00 | 0.00 | 0.00 | 1 | 1008.2 |
| 20260506072404 | 76 | 35 | 6.0 | 14.0 | 0.00 | 0.00 | 0.00 | 1 | 1008.2 |
| 20260506072305 | 76 | 33 | 6.0 | 14.0 | 0.00 | 0.00 | 0.00 | 1 | 1008.3 |
| 20260506072204 | 76 | 35 | 6.0 | 14.0 | 0.00 | 0.00 | 0.00 | 1 | 1008.3 |
| 20260506072103 | 76 | 32 | 6.0 | 14.0 | 0.00 | 0.00 | 0.00 | 1 | 1008.3 |
| 20260506072003 | 76 | 29 | 7.0 | 15.0 | 0.00 | 0.00 | 0.00 | 1 | 1008.2 |
| 20260506071904 | 76 | 32 | 6.0 | 15.0 | 0.00 | 0.00 | 0.00 | 1 | 1008.2 |
| 20260506071824 | 76 | 31 | 6.0 | 15.0 | 0.00 | 0.00 | 0.00 | 1 | 1008.2 |
| 20260506071703 | 76 | 28 | 6.0 | 15.0 | 0.00 | 0.00 | 0.00 | 1 | 1008.2 |
| 20260506071625 | 76 | 27 | 7.0 | 15.0 | 0.00 | 0.00 | 0.00 | 1 | 1008.3 |
| 20260506071504 | 76 | 28 | 7.0 | 15.0 | 0.00 | 0.00 | 0.00 | 1 | 1008.3 |
| 20260506071404 | 76 | 28 | 7.0 | 15.0 | 0.00 | 0.00 | 0.00 | 1 | 1008.3 |
| 20260506071303 | 76 | 29 | 7.0 | 15.0 | 0.00 | 0.00 | 0.00 | 1 | 1008.3 |
| 20260506071203 | 76 | 30 | 7.0 | 15.0 | 0.00 | 0.00 | 0.00 | 1 | 1008.3 |
| 20260506071124 | 76 | 31 | 7.0 | 15.0 | 0.00 | 0.00 | 0.00 | 1 | 1008.3 |
| 20260506071004 | 76 | 32 | 6.0 | 13.0 | 0.00 | 0.00 | 0.00 | 1 | 1008.4 |
| 20260506070903 | 76 | 31 | 6.0 | 13.0 | 0.00 | 0.00 | 0.00 | 1 | 1008.4 |
| 20260506070824 | 76 | 32 | 5.0 | 13.0 | 0.00 | 0.00 | 0.00 | 1 | 1008.4 |
| 20260506070703 | 76 | 32 | 5.0 | 13.0 | 0.00 | 0.00 | 0.00 | 1 | 1008.4 |
| 20260506070603 | 76 | 38 | 5.0 | 13.0 | 0.00 | 0.00 | 0.00 | 1 | 1008.4 |
| 20260506070524 | 76 | 37 | 5.0 | 14.0 | 0.00 | 0.00 | 0.00 | 1 | 1008.4 |
| 20260506070403 | 76 | 37 | 4.0 | 14.0 | 0.00 | 0.00 | 0.00 | 1 | 1008.4 |
| 20260506070304 | 76 | 36 | 5.0 | 14.0 | 0.00 | 0.00 | 0.00 | 1 | 1008.4 |
| 20260506070204 | 76 | 36 | 4.0 | 14.0 | 0.00 | 0.00 | 0.00 | 1 | 1008.4 |
| 20260506070103 | 76 | 34 | 4.0 | 14.0 | 0.00 | 0.00 | 0.00 | 1 | 1008.4 |
| 20260506062503 | 77 | 32 | 5.0 | 12.0 | 0.00 | 0.00 | 0.00 | 1 | 1008.5 |
| 20260506062403 | 77 | 33 | 5.0 | 12.0 | 0.00 | 0.00 | 0.00 | 1 | 1008.4 |
| 20260506062305 | 77 | 38 | 5.0 | 12.0 | 0.00 | 0.00 | 0.00 | 1 | 1008.4 |
| 20260506062203 | 77 | 35 | 5.0 | 12.0 | 0.00 | 0.00 | 0.00 | 1 | 1008.4 |
| 20260506062103 | 77 | 38 | 5.0 | 11.0 | 0.00 | 0.00 | 0.00 | 1 | 1008.3 |
| 20260506062003 | 77 | 36 | 5.0 | 11.0 | 0.00 | 0.00 | 0.00 | 1 | 1008.3 |
| 20260506061903 | 77 | 37 | 5.0 | 11.0 | 0.00 | 0.00 | 0.00 | 1 | 1008.3 |
| 20260506061824 | 77 | 39 | 5.0 | 11.0 | 0.00 | 0.00 | 0.00 | 1 | 1008.2 |
| 20260506061704 | 77 | 42 | 5.0 | 13.0 | 0.00 | 0.00 | 0.00 | 1 | 1008.2 |
| 20260506061603 | 77 | 38 | 6.0 | 13.0 | 0.00 | 0.00 | 0.00 | 1 | 1008.2 |
| 20260506061503 | 77 | 41 | 6.0 | 13.0 | 0.00 | 0.00 | 0.00 | 1 | 1008.2 |
| 20260506061403 | 77 | 38 | 5.0 | 13.0 | 0.00 | 0.00 | 0.00 | 1 | 1008.2 |
| 20260506061303 | 77 | 36 | 5.0 | 13.0 | 0.00 | 0.00 | 0.00 | 1 | 1008.3 |
| 20260506061203 | 77 | 33 | 5.0 | 13.0 | 0.00 | 0.00 | 0.00 | 1 | 1008.3 |
| 20260506061103 | 77 | 27 | 4.0 | 13.0 | 0.00 | 0.00 | 0.00 | 1 | 1008.3 |
| 20260506061003 | 77 | 22 | 4.0 | 13.0 | 0.00 | 0.00 | 0.00 | 1 | 1008.3 |
| 20260506060903 | 77 | 15 | 4.0 | 13.0 | 0.00 | 0.00 | 0.00 | 1 | 1008.3 |
| 20260506060803 | 77 | 5 | 4.0 | 13.0 | 0.00 | 0.00 | 0.00 | 1 | 1008.4 |
| 20260506060724 | 77 | 4 | 4.0 | 13.0 | 0.00 | 0.00 | 0.00 | 1 | 1008.3 |
| 20260506060603 | 77 | 7 | 3.0 | 10.0 | 0.00 | 0.00 | 0.00 | 1 | 1008.4 |
| 20260506060504 | 77 | 358 | 3.0 | 11.0 | 0.00 | 0.00 | 0.00 | 1 | 1008.4 |
| 20260506060403 | 77 | 3 | 4.0 | 11.0 | 0.00 | 0.00 | 0.00 | 1 | 1008.4 |
| 20260506060303 | 77 | 10 | 4.0 | 11.0 | 0.00 | 0.00 | 0.00 | 1 | 1008.4 |
| 20260506060203 | 77 | 16 | 4.0 | 12.0 | 0.00 | 0.00 | 0.00 | 1 | 1008.5 |
| 20260506051404 | 77 | 34 | 4.0 | 11.0 | 0.00 | 0.00 | 0.00 | 1 | 1008.4 |
| 20260506051324 | 77 | 34 | 4.0 | 11.0 | 0.00 | 0.00 | 0.00 | 1 | 1008.4 |
| 20260506051203 | 77 | 35 | 5.0 | 11.0 | 0.00 | 0.00 | 0.00 | 1 | 1008.4 |
| 20260506051103 | 77 | 32 | 4.0 | 11.0 | 0.00 | 0.00 | 0.00 | 1 | 1008.4 |
| 20260506051003 | 77 | 38 | 4.0 | 10.0 | 0.00 | 0.00 | 0.00 | 1 | 1008.5 |
| 20260506050903 | 77 | 40 | 4.0 | 10.0 | 0.00 | 0.00 | 0.00 | 1 | 1008.4 |
| 20260506050824 | 77 | 43 | 4.0 | 10.0 | 0.00 | 0.00 | 0.00 | 1 | 1008.5 |
| 20260506050704 | 77 | 41 | 4.0 | 10.0 | 0.00 | 0.00 | 0.00 | 1 | 1008.5 |
| 20260506050605 | 77 | 34 | 4.0 | 10.0 | 0.00 | 0.00 | 0.00 | 1 | 1008.5 |
| 20260506050503 | 77 | 26 | 4.0 | 10.0 | 0.00 | 0.00 | 0.00 | 1 | 1008.6 |
| 20260506050404 | 77 | 23 | 4.0 | 10.0 | 0.00 | 0.00 | 0.00 | 1 | 1008.5 |
| 20260506050304 | 77 | 20 | 4.0 | 10.0 | 0.00 | 0.00 | 0.00 | 1 | 1008.6 |
| 20260506050203 | 77 | 18 | 3.0 | 10.0 | 0.00 | 0.00 | 0.00 | 1 | 1008.6 |
| 20260506050103 | 77 | 18 | 3.0 | 10.0 | 0.00 | 0.00 | 0.00 | 1 | 1008.6 |
| 20260506045104 | 77 | 2 | 4.0 | 10.0 | 0.00 | 0.00 | 0.00 | 1 | 1008.5 |
| 20260506045024 | 77 | 356 | 4.0 | 10.0 | 0.00 | 0.00 | 0.00 | 1 | 1008.5 |
| 20260506044903 | 77 | 351 | 3.0 | 10.0 | 0.00 | 0.00 | 0.00 | 1 | 1008.5 |
| 20260506044803 | 77 | 346 | 3.0 | 10.0 | 0.00 | 0.00 | 0.00 | 1 | 1008.5 |
| 20260506044703 | 77 | 347 | 3.0 | 10.0 | 0.00 | 0.00 | 0.00 | 1 | 1008.4 |
| 20260506044603 | 77 | 354 | 2.0 | 10.0 | 0.00 | 0.00 | 0.00 | 1 | 1008.5 |
| 20260506044504 | 77 | 348 | 3.0 | 10.0 | 0.00 | 0.00 | 0.00 | 1 | 1008.5 |
| 20260506044404 | 77 | 341 | 3.0 | 10.0 | 0.00 | 0.00 | 0.00 | 1 | 1008.5 |
| 20260506044303 | 77 | 341 | 3.0 | 10.0 | 0.00 | 0.00 | 0.00 | 1 | 1008.5 |
| 20260506044203 | 77 | 350 | 3.0 | 10.0 | 0.00 | 0.00 | 0.00 | 1 | 1008.5 |
| 20260506044103 | 77 | 360 | 3.0 | 7.0 | 0.00 | 0.00 | 0.00 | 1 | 1008.6 |
| 20260506044003 | 77 | 6 | 2.0 | 7.0 | 0.00 | 0.00 | 0.00 | 1 | 1008.6 |
| 20260506043924 | 77 | 13 | 3.0 | 7.0 | 0.00 | 0.00 | 0.00 | 1 | 1008.6 |
| 20260506043803 | 77 | 22 | 3.0 | 7.0 | 0.00 | 0.00 | 0.00 | 1 | 1008.6 |
| 20260506043703 | 77 | 10 | 3.0 | 7.0 | 0.00 | 0.00 | 0.00 | 1 | 1008.6 |
| 20260506043603 | 77 | 4 | 3.0 | 7.0 | 0.00 | 0.00 | 0.00 | 1 | 1008.6 |
| 20260506043524 | 77 | 9 | 3.0 | 7.0 | 0.00 | 0.00 | 0.00 | 1 | 1008.6 |
| 20260506043404 | 77 | 31 | 3.0 | 7.0 | 0.00 | 0.00 | 0.00 | 1 | 1008.6 |
| 20260506043303 | 77 | 35 | 3.0 | 7.0 | 0.00 | 0.00 | 0.00 | 1 | 1008.6 |
| 20260506043203 | 77 | 39 | 3.0 | 7.0 | 0.00 | 0.00 | 0.00 | 1 | 1008.6 |
| 20260506043103 | 77 | 37 | 3.0 | 7.0 | 0.00 | 0.00 | 0.00 | 1 | 1008.6 |
| 20260506043003 | 77 | 37 | 3.0 | 7.0 | 0.00 | 0.00 | 0.00 | 1 | 1008.5 |
| 20260506042903 | 77 | 34 | 3.0 | 7.0 | 0.00 | 0.00 | 0.00 | 1 | 1008.5 |
| 20260506042803 | 77 | 39 | 3.0 | 6.0 | 0.00 | 0.00 | 0.00 | 1 | 1008.5 |
| 20260506042703 | 77 | 49 | 3.0 | 6.0 | 0.00 | 0.00 | 0.00 | 1 | 1008.4 |
| 20260506042604 | 77 | 53 | 2.0 | 6.0 | 0.00 | 0.00 | 0.00 | 1 | 1008.4 |
| 20260506042503 | 77 | 54 | 2.0 | 6.0 | 0.00 | 0.00 | 0.00 | 1 | 1008.4 |
| 20260506042403 | 77 | 52 | 2.0 | 6.0 | 0.00 | 0.00 | 0.00 | 1 | 1008.4 |
| 20260506042305 | 77 | 54 | 2.0 | 6.0 | 0.00 | 0.00 | 0.00 | 1 | 1008.4 |
| 20260506042203 | 77 | 52 | 1.0 | 6.0 | 0.00 | 0.00 | 0.00 | 1 | 1008.4 |
| 20260506042103 | 77 | 50 | 1.0 | 6.0 | 0.00 | 0.00 | 0.00 | 1 | 1008.4 |
| 20260506042024 | 77 | 43 | 2.0 | 6.0 | 0.00 | 0.00 | 0.00 | 1 | 1008.4 |
| 20260506041903 | 77 | 37 | 2.0 | 8.0 | 0.00 | 0.00 | 0.00 | 1 | 1008.4 |
| 20260506041824 | 77 | 39 | 2.0 | 8.0 | 0.00 | 0.00 | 0.00 | 1 | 1008.4 |
| 20260506041703 | 77 | 28 | 2.0 | 8.0 | 0.00 | 0.00 | 0.00 | 1 | 1008.4 |
| 20260506041603 | 77 | 31 | 3.0 | 8.0 | 0.00 | 0.00 | 0.00 | 1 | 1008.4 |
| 20260506041504 | 77 | 36 | 3.0 | 8.0 | 0.00 | 0.00 | 0.00 | 1 | 1008.4 |
| 20260506041403 | 77 | 31 | 3.0 | 11.0 | 0.00 | 0.00 | 0.00 | 1 | 1008.4 |
| 20260506041303 | 77 | 31 | 3.0 | 11.0 | 0.00 | 0.00 | 0.00 | 1 | 1008.3 |
| 20260506041203 | 77 | 32 | 4.0 | 11.0 | 0.00 | 0.00 | 0.00 | 1 | 1008.4 |
| 20260506041104 | 77 | 28 | 4.0 | 11.0 | 0.00 | 0.00 | 0.00 | 1 | 1008.3 |
| 20260506041003 | 77 | 29 | 4.0 | 11.0 | 0.00 | 0.00 | 0.00 | 1 | 1008.3 |
| 20260506040903 | 77 | 28 | 4.0 | 11.0 | 0.00 | 0.00 | 0.00 | 1 | 1008.3 |
| 20260506040804 | 77 | 31 | 4.0 | 11.0 | 0.00 | 0.00 | 0.00 | 1 | 1008.3 |
| 20260506040703 | 77 | 38 | 4.0 | 11.0 | 0.00 | 0.00 | 0.00 | 1 | 1008.3 |
| 20260506040603 | 77 | 38 | 4.0 | 11.0 | 0.00 | 0.00 | 0.00 | 1 | 1008.3 |
| 20260506040503 | 77 | 30 | 4.0 | 11.0 | 0.00 | 0.00 | 0.00 | 1 | 1008.3 |
| 20260506040404 | 77 | 32 | 4.0 | 9.0 | 0.00 | 0.00 | 0.00 | 1 | 1008.2 |
| 20260506040303 | 77 | 28 | 4.0 | 9.0 | 0.00 | 0.00 | 0.00 | 1 | 1008.2 |
| 20260506040204 | 78 | 19 | 4.0 | 10.0 | 0.00 | 0.00 | 0.00 | 1 | 1008.2 |
| 20260506040104 | 78 | 16 | 4.0 | 10.0 | 0.00 | 0.00 | 0.00 | 1 | 1008.2 |
| 20260506040024 | 78 | 18 | 4.0 | 10.0 | 0.00 | 0.00 | 0.00 | 1 | 1008.2 |
| 20260506035903 | 78 | 20 | 4.0 | 10.0 | 0.00 | 0.00 | 0.00 | 1 | 1008.1 |
| 20260506035824 | 78 | 19 | 4.0 | 10.0 | 0.00 | 0.00 | 0.00 | 1 | 1008.0 |
| 20260506035724 | 78 | 18 | 4.0 | 10.0 | 0.00 | 0.00 | 0.00 | 1 | 1008.0 |
| 20260506035603 | 78 | 16 | 4.0 | 10.0 | 0.00 | 0.00 | 0.00 | 1 | 1008.0 |
| 20260506035525 | 78 | 17 | 4.0 | 10.0 | 0.00 | 0.00 | 0.00 | 1 | 1008.0 |
| 20260506035424 | 78 | 19 | 4.0 | 10.0 | 0.00 | 0.00 | 0.00 | 1 | 1008.0 |
| 20260506035306 | 78 | 19 | 3.0 | 10.0 | 0.00 | 0.00 | 0.00 | 1 | 1007.9 |
| 20260506035203 | 78 | 28 | 3.0 | 10.0 | 0.00 | 0.00 | 0.00 | 1 | 1007.9 |
| 20260506035104 | 78 | 37 | 2.0 | 8.0 | 0.00 | 0.00 | 0.00 | 1 | 1008.0 |
| 20260506035003 | 78 | 40 | 2.0 | 8.0 | 0.00 | 0.00 | 0.00 | 1 | 1007.9 |
| 20260506034904 | 78 | 34 | 2.0 | 8.0 | 0.00 | 0.00 | 0.00 | 1 | 1008.0 |
| 20260506034803 | 78 | 31 | 2.0 | 8.0 | 0.00 | 0.00 | 0.00 | 1 | 1008.0 |
| 20260506034724 | 78 | 24 | 2.0 | 8.0 | 0.00 | 0.00 | 0.00 | 1 | 1008.1 |
| 20260506034603 | 78 | 17 | 2.0 | 8.0 | 0.00 | 0.00 | 0.00 | 1 | 1008.0 |
| 20260506034503 | 78 | 23 | 2.0 | 9.0 | 0.00 | 0.00 | 0.00 | 1 | 1008.0 |
| 20260506034403 | 78 | 12 | 2.0 | 9.0 | 0.00 | 0.00 | 0.00 | 1 | 1008.0 |
| 20260506034303 | 78 | 12 | 2.0 | 9.0 | 0.00 | 0.00 | 0.00 | 1 | 1008.0 |
| 20260506034203 | 78 | 12 | 2.0 | 9.0 | 0.00 | 0.00 | 0.00 | 1 | 1008.0 |
| 20260506034103 | 78 | 7 | 2.0 | 9.0 | 0.00 | 0.00 | 0.00 | 1 | 1008.0 |
| 20260506034003 | 78 | 358 | 3.0 | 9.0 | 0.00 | 0.00 | 0.00 | 1 | 1008.0 |
| 20260506033903 | 78 | 4 | 3.0 | 9.0 | 0.00 | 0.00 | 0.00 | 1 | 1007.9 |
| 20260506033803 | 78 | 359 | 2.0 | 9.0 | 0.00 | 0.00 | 0.00 | 1 | 1007.9 |
| 20260506033704 | 78 | 360 | 2.0 | 9.0 | 0.00 | 0.00 | 0.00 | 1 | 1007.9 |
| 20260506033603 | 78 | 352 | 2.0 | 9.0 | 0.00 | 0.00 | 0.00 | 1 | 1007.8 |
| 20260506033524 | 78 | 343 | 1.0 | 9.0 | 0.00 | 0.00 | 0.00 | 1 | 1007.8 |
| 20260506033403 | 78 | 342 | 1.0 | 8.0 | 0.00 | 0.00 | 0.00 | 1 | 1007.8 |
| 20260506033303 | 78 | 342 | 1.0 | 8.0 | 0.00 | 0.00 | 0.00 | 1 | 1007.8 |
| 20260506033224 | 78 | 342 | 1.0 | 8.0 | 0.00 | 0.00 | 0.00 | 1 | 1007.8 |
| 20260506033103 | 78 | 330 | 1.0 | 8.0 | 0.00 | 0.00 | 0.00 | 1 | 1007.8 |
| 20260506033004 | 78 | 317 | 1.0 | 8.0 | 0.00 | 0.00 | 0.00 | 1 | 1007.8 |
| 20260506032903 | 78 | 290 | 1.0 | 7.0 | 0.00 | 0.00 | 0.00 | 1 | 1007.8 |
| 20260506032803 | 78 | 292 | 1.0 | 7.0 | 0.00 | 0.00 | 0.00 | 1 | 1007.8 |
| 20260506032703 | 78 | 304 | 1.0 | 7.0 | 0.00 | 0.00 | 0.00 | 1 | 1007.8 |
| 20260506032603 | 78 | 317 | 2.0 | 7.0 | 0.00 | 0.00 | 0.00 | 1 | 1007.8 |
| 20260506032503 | 78 | 317 | 2.0 | 7.0 | 0.00 | 0.00 | 0.00 | 1 | 1007.8 |
| 20260506032403 | 78 | 333 | 3.0 | 7.0 | 0.00 | 0.00 | 0.00 | 1 | 1007.8 |
| 20260506032324 | 78 | 334 | 3.0 | 7.0 | 0.00 | 0.00 | 0.00 | 1 | 1007.8 |
| 20260506032203 | 78 | 342 | 3.0 | 7.0 | 0.00 | 0.00 | 0.00 | 1 | 1007.8 |
| 20260506032124 | 78 | 346 | 2.0 | 7.0 | 0.00 | 0.00 | 0.00 | 1 | 1007.7 |
| 20260506032003 | 78 | 6 | 3.0 | 7.0 | 0.00 | 0.00 | 0.00 | 1 | 1007.7 |
| 20260506031904 | 78 | 16 | 3.0 | 7.0 | 0.00 | 0.00 | 0.00 | 1 | 1007.7 |
| 20260506031824 | 78 | 18 | 3.0 | 8.0 | 0.00 | 0.00 | 0.00 | 1 | 1007.6 |
| 20260506031703 | 78 | 13 | 3.0 | 9.0 | 0.00 | 0.00 | 0.00 | 1 | 1007.5 |
| 20260506031603 | 78 | 15 | 3.0 | 9.0 | 0.00 | 0.00 | 0.00 | 1 | 1007.5 |
| 20260506031504 | 78 | 26 | 3.0 | 9.0 | 0.00 | 0.00 | 0.00 | 1 | 1007.6 |
| 20260506031403 | 78 | 27 | 3.0 | 9.0 | 0.00 | 0.00 | 0.00 | 1 | 1007.6 |
| 20260506031303 | 78 | 33 | 3.0 | 9.0 | 0.00 | 0.00 | 0.00 | 1 | 1007.5 |
| 20260506031203 | 78 | 30 | 3.0 | 9.0 | 0.00 | 0.00 | 0.00 | 1 | 1007.5 |
| 20260506031124 | 78 | 25 | 4.0 | 9.0 | 0.00 | 0.00 | 0.00 | 1 | 1007.6 |
| 20260506031003 | 78 | 24 | 4.0 | 9.0 | 0.00 | 0.00 | 0.00 | 1 | 1007.6 |
| 20260506030903 | 78 | 25 | 4.0 | 9.0 | 0.00 | 0.00 | 0.00 | 1 | 1007.6 |
| 20260506030805 | 78 | 31 | 3.0 | 9.0 | 0.00 | 0.00 | 0.00 | 1 | 1007.6 |
| 20260506030703 | 78 | 35 | 3.0 | 9.0 | 0.00 | 0.00 | 0.00 | 1 | 1007.6 |
| 20260506030604 | 78 | 27 | 4.0 | 9.0 | 0.00 | 0.00 | 0.00 | 1 | 1007.6 |
| 20260506030503 | 78 | 11 | 4.0 | 9.0 | 0.00 | 0.00 | 0.00 | 1 | 1007.6 |
| 20260506030403 | 78 | 360 | 3.0 | 9.0 | 0.00 | 0.00 | 0.00 | 1 | 1007.6 |
| 20260506030324 | 78 | 351 | 4.0 | 9.0 | 0.00 | 0.00 | 0.00 | 1 | 1007.6 |
| 20260506030203 | 78 | 344 | 4.0 | 9.0 | 0.00 | 0.00 | 0.00 | 1 | 1007.5 |
| 20260506030103 | 78 | 351 | 4.0 | 9.0 | 0.00 | 0.00 | 0.00 | 1 | 1007.5 |
| 20260506030003 | 78 | 342 | 4.0 | 9.0 | 0.00 | 0.00 | 0.00 | 1 | 1007.5 |
| 20260506025903 | 78 | 339 | 4.0 | 10.0 | 0.00 | 0.00 | 0.00 | 1 | 1007.5 |
| 20260506025824 | 78 | 334 | 4.0 | 10.0 | 0.00 | 0.00 | 0.00 | 1 | 1007.5 |
| 20260506025703 | 78 | 329 | 4.0 | 10.0 | 0.00 | 0.00 | 0.00 | 1 | 1007.5 |
| 20260506025603 | 78 | 331 | 4.0 | 10.0 | 0.00 | 0.00 | 0.00 | 1 | 1007.5 |
| 20260506025525 | 78 | 335 | 4.0 | 10.0 | 0.00 | 0.00 | 0.00 | 1 | 1007.4 |
| 20260506025403 | 78 | 345 | 4.0 | 10.0 | 0.00 | 0.00 | 0.00 | 1 | 1007.4 |
| 20260506025324 | 78 | 348 | 4.0 | 10.0 | 0.00 | 0.00 | 0.00 | 1 | 1007.4 |
| 20260506025224 | 78 | 351 | 4.0 | 10.0 | 0.00 | 0.00 | 0.00 | 1 | 1007.3 |
| 20260506025103 | 79 | 353 | 4.0 | 10.0 | 0.00 | 0.00 | 0.00 | 1 | 1007.3 |
| 20260506025003 | 79 | 357 | 4.0 | 10.0 | 0.00 | 0.00 | 0.00 | 1 | 1007.2 |
| 20260506024903 | 79 | 360 | 5.0 | 9.0 | 0.00 | 0.00 | 0.00 | 1 | 1007.2 |
| 20260506024824 | 79 | 358 | 5.0 | 12.0 | 0.00 | 0.00 | 0.00 | 1 | 1007.2 |
| 20260506024703 | 79 | 356 | 5.0 | 12.0 | 0.00 | 0.00 | 0.00 | 1 | 1007.3 |
| 20260506024603 | 79 | 351 | 5.0 | 12.0 | 0.00 | 0.00 | 0.00 | 1 | 1007.2 |
| 20260506024503 | 79 | 344 | 5.0 | 12.0 | 0.00 | 0.00 | 0.00 | 1 | 1007.2 |
| 20260506024403 | 79 | 341 | 4.0 | 12.0 | 0.00 | 0.00 | 0.00 | 1 | 1007.1 |
| 20260506024303 | 79 | 349 | 4.0 | 12.0 | 0.00 | 0.00 | 0.00 | 1 | 1007.2 |
| 20260506024224 | 79 | 349 | 4.0 | 12.0 | 0.00 | 0.00 | 0.00 | 1 | 1007.1 |
| 20260506024103 | 79 | 352 | 4.0 | 12.0 | 0.00 | 0.00 | 0.00 | 1 | 1007.1 |
| 20260506024003 | 79 | 356 | 4.0 | 12.0 | 0.00 | 0.00 | 0.00 | 1 | 1007.0 |
| 20260506023903 | 79 | 350 | 4.0 | 12.0 | 0.00 | 0.00 | 0.00 | 1 | 1007.0 |
| 20260506023803 | 79 | 355 | 3.0 | 9.0 | 0.00 | 0.00 | 0.00 | 1 | 1007.0 |
| 20260506023704 | 79 | 358 | 3.0 | 8.0 | 0.00 | 0.00 | 0.00 | 1 | 1007.0 |
| 20260506023603 | 79 | 358 | 3.0 | 7.0 | 0.00 | 0.00 | 0.00 | 1 | 1007.0 |
| 20260506023503 | 79 | 2 | 3.0 | 7.0 | 0.00 | 0.00 | 0.00 | 1 | 1006.9 |
| 20260506023403 | 79 | 359 | 3.0 | 7.0 | 0.00 | 0.00 | 0.00 | 1 | 1006.9 |
| 20260506023303 | 79 | 352 | 3.0 | 7.0 | 0.00 | 0.00 | 0.00 | 1 | 1006.9 |
| 20260506023203 | 79 | 349 | 3.0 | 7.0 | 0.00 | 0.00 | 0.00 | 1 | 1006.9 |
| 20260506023103 | 79 | 357 | 3.0 | 7.0 | 0.00 | 0.00 | 0.00 | 1 | 1006.8 |
| 20260506023003 | 79 | 345 | 3.0 | 8.0 | 0.00 | 0.00 | 0.00 | 1 | 1006.8 |
| 20260506022903 | 79 | 350 | 3.0 | 8.0 | 0.00 | 0.00 | 0.00 | 1 | 1006.8 |
| 20260506022824 | 79 | 344 | 3.0 | 8.0 | 0.00 | 0.00 | 0.00 | 1 | 1006.8 |
| 20260506022703 | 79 | 341 | 3.0 | 8.0 | 0.00 | 0.00 | 0.00 | 1 | 1006.8 |
| 20260506022603 | 79 | 345 | 3.0 | 8.0 | 0.00 | 0.00 | 0.00 | 1 | 1006.7 |
| 20260506022503 | 79 | 352 | 3.0 | 8.0 | 0.00 | 0.00 | 0.00 | 1 | 1006.7 |
| 20260506022403 | 79 | 346 | 3.0 | 8.0 | 0.00 | 0.00 | 0.00 | 1 | 1006.7 |
| 20260506022305 | 79 | 339 | 4.0 | 9.0 | 0.00 | 0.00 | 0.00 | 1 | 1006.7 |
| 20260506022203 | 79 | 334 | 4.0 | 11.0 | 0.00 | 0.00 | 0.00 | 1 | 1006.7 |
| 20260506022103 | 79 | 327 | 4.0 | 11.0 | 0.00 | 0.00 | 0.00 | 1 | 1006.6 |
| 20260506022003 | 79 | 325 | 4.0 | 11.0 | 0.00 | 0.00 | 0.00 | 1 | 1006.6 |
| 20260506021903 | 79 | 321 | 4.0 | 11.0 | 0.00 | 0.00 | 0.00 | 1 | 1006.6 |
| 20260506021803 | 79 | 322 | 4.0 | 11.0 | 0.00 | 0.00 | 0.00 | 1 | 1006.6 |
| 20260506021704 | 79 | 322 | 4.0 | 11.0 | 0.00 | 0.00 | 0.00 | 1 | 1006.6 |
| 20260506021625 | 79 | 320 | 4.0 | 11.0 | 0.00 | 0.00 | 0.00 | 1 | 1006.5 |
| 20260506021503 | 79 | 314 | 4.0 | 11.0 | 0.00 | 0.00 | 0.00 | 1 | 1006.5 |
| 20260506021403 | 79 | 310 | 4.0 | 11.0 | 0.00 | 0.00 | 0.00 | 1 | 1006.5 |
| 20260506021303 | 79 | 306 | 4.0 | 11.0 | 0.00 | 0.00 | 0.00 | 1 | 1006.5 |
| 20260506021203 | 79 | 301 | 3.0 | 8.0 | 0.00 | 0.00 | 0.00 | 1 | 1006.4 |
| 20260506021103 | 79 | 296 | 3.0 | 7.0 | 0.00 | 0.00 | 0.00 | 1 | 1006.4 |
| 20260506021024 | 79 | 295 | 3.0 | 7.0 | 0.00 | 0.00 | 0.00 | 1 | 1006.4 |
| 20260506020903 | 79 | 289 | 3.0 | 6.0 | 0.00 | 0.00 | 0.00 | 1 | 1006.3 |
| 20260506020803 | 80 | 287 | 3.0 | 6.0 | 0.00 | 0.00 | 0.00 | 2 | 1006.4 |
| 20260506020724 | 80 | 285 | 3.0 | 6.0 | 0.00 | 0.00 | 0.00 | 2 | 1006.4 |
| 20260506020603 | 80 | 282 | 3.0 | 5.0 | 0.00 | 0.00 | 0.00 | 5 | 1006.4 |
| 20260506020524 | 80 | 280 | 2.0 | 5.0 | 0.00 | 0.00 | 0.00 | 7 | 1006.4 |
| 20260506020403 | 80 | 278 | 2.0 | 5.0 | 0.00 | 0.00 | 0.00 | 9 | 1006.3 |
| 20260506020324 | 80 | 278 | 2.0 | 7.0 | 0.00 | 0.00 | 0.00 | 10 | 1006.3 |
| 20260506020224 | 80 | 282 | 2.0 | 7.0 | 0.00 | 0.00 | 0.00 | 11 | 1006.3 |
| 20260506020103 | 80 | 285 | 3.0 | 7.0 | 0.00 | 0.00 | 0.00 | 13 | 1006.3 |
| 20260506020003 | 80 | 285 | 3.0 | 7.0 | 0.00 | 0.00 | 0.00 | 14 | 1006.4 |
| 20260506015924 | 80 | 286 | 3.0 | 7.0 | 0.00 | 0.00 | 0.00 | 15 | 1006.4 |
| 20260506015803 | 80 | 289 | 3.0 | 7.0 | 0.00 | 0.00 | 0.00 | 16 | 1006.4 |
| 20260506015703 | 80 | 293 | 3.0 | 7.0 | 0.00 | 0.00 | 0.00 | 16 | 1006.4 |
| 20260506015603 | 80 | 296 | 3.0 | 7.0 | 0.00 | 0.00 | 0.00 | 17 | 1006.4 |
| 20260506015503 | 80 | 300 | 3.0 | 7.0 | 0.00 | 0.00 | 0.00 | 18 | 1006.4 |
| 20260506015403 | 80 | 301 | 3.0 | 7.0 | 0.00 | 0.00 | 0.00 | 19 | 1006.4 |
| 20260506015305 | 80 | 304 | 3.0 | 6.0 | 0.00 | 0.00 | 0.00 | 19 | 1006.3 |
| 20260506015203 | 81 | 309 | 3.0 | 6.0 | 0.00 | 0.00 | 0.00 | 20 | 1006.3 |
| 20260506015103 | 81 | 317 | 3.0 | 6.0 | 0.00 | 0.00 | 0.00 | 21 | 1006.3 |
| 20260506015003 | 81 | 318 | 3.0 | 7.0 | 0.00 | 0.00 | 0.00 | 22 | 1006.2 |
| 20260506014903 | 81 | 323 | 3.0 | 7.0 | 0.00 | 0.00 | 0.00 | 22 | 1006.2 |
| 20260506014803 | 81 | 323 | 3.0 | 7.0 | 0.00 | 0.00 | 0.00 | 23 | 1006.2 |
| 20260506014703 | 81 | 327 | 3.0 | 7.0 | 0.00 | 0.00 | 0.00 | 23 | 1006.2 |
| 20260506014603 | 81 | 327 | 3.0 | 7.0 | 0.00 | 0.00 | 0.00 | 24 | 1006.2 |
| 20260506014503 | 81 | 329 | 3.0 | 7.0 | 0.00 | 0.00 | 0.00 | 24 | 1006.2 |
| 20260506014403 | 81 | 339 | 3.0 | 7.0 | 0.00 | 0.00 | 0.00 | 25 | 1006.2 |
| 20260506014303 | 81 | 350 | 3.0 | 7.0 | 0.00 | 0.00 | 0.00 | 25 | 1006.2 |
| 20260506014203 | 81 | 340 | 3.0 | 7.0 | 0.00 | 0.00 | 0.00 | 25 | 1006.2 |
| 20260506014103 | 81 | 343 | 4.0 | 7.0 | 0.00 | 0.00 | 0.00 | 26 | 1006.2 |
| 20260506014003 | 81 | 354 | 3.0 | 7.0 | 0.00 | 0.00 | 0.00 | 26 | 1006.2 |
| 20260506013903 | 81 | 5 | 3.0 | 7.0 | 0.00 | 0.00 | 0.00 | 26 | 1006.2 |
| 20260506013803 | 81 | 21 | 3.0 | 7.0 | 0.00 | 0.00 | 0.00 | 26 | 1006.2 |
| 20260506013703 | 81 | 31 | 3.0 | 7.0 | 0.00 | 0.00 | 0.00 | 27 | 1006.3 |
| 20260506013603 | 81 | 40 | 3.0 | 7.0 | 0.00 | 0.00 | 0.00 | 27 | 1006.3 |
| 20260506013504 | 81 | 49 | 3.0 | 7.0 | 0.00 | 0.00 | 0.00 | 27 | 1006.3 |
| 20260506013424 | 81 | 49 | 3.0 | 7.0 | 0.00 | 0.00 | 0.00 | 28 | 1006.3 |
| 20260506013303 | 81 | 50 | 3.0 | 7.0 | 0.00 | 0.00 | 0.00 | 28 | 1006.3 |
| 20260506013224 | 81 | 55 | 3.0 | 7.0 | 0.00 | 0.00 | 0.00 | 28 | 1006.3 |
| 20260506013103 | 81 | 51 | 2.0 | 7.0 | 0.00 | 0.00 | 0.00 | 29 | 1006.3 |
| 20260506013024 | 81 | 50 | 2.0 | 5.0 | 0.00 | 0.00 | 0.00 | 29 | 1006.3 |
| 20260506012903 | 81 | 32 | 2.0 | 5.0 | 0.00 | 0.00 | 0.00 | 29 | 1006.3 |
| 20260506012824 | 81 | 21 | 2.0 | 5.0 | 0.00 | 0.00 | 0.00 | 30 | 1006.3 |
| 20260506012703 | 81 | 357 | 2.0 | 5.0 | 0.00 | 0.00 | 0.00 | 30 | 1006.3 |
| 20260506012624 | 81 | 343 | 2.0 | 5.0 | 0.00 | 0.00 | 0.00 | 30 | 1006.3 |
| 20260506012503 | 81 | 326 | 2.0 | 5.0 | 0.00 | 0.00 | 0.00 | 31 | 1006.3 |
| 20260506012424 | 81 | 326 | 2.0 | 5.0 | 0.00 | 0.00 | 0.00 | 31 | 1006.2 |
| 20260506012307 | 81 | 323 | 2.0 | 5.0 | 0.00 | 0.00 | 0.00 | 32 | 1006.3 |
| 20260506012203 | 81 | 324 | 2.0 | 5.0 | 0.00 | 0.00 | 0.00 | 32 | 1006.3 |
| 20260506012103 | 81 | 329 | 2.0 | 5.0 | 0.00 | 0.00 | 0.00 | 32 | 1006.3 |
| 20260506012024 | 82 | 343 | 2.0 | 5.0 | 0.00 | 0.00 | 0.00 | 32 | 1006.3 |
| 20260506011924 | 82 | 359 | 2.0 | 5.0 | 0.00 | 0.00 | 0.00 | 33 | 1006.3 |
| 20260506011803 | 82 | 26 | 2.0 | 5.0 | 0.00 | 0.00 | 0.00 | 33 | 1006.3 |
| 20260506011703 | 82 | 38 | 2.0 | 5.0 | 0.00 | 0.00 | 0.00 | 34 | 1006.3 |
| 20260506011603 | 82 | 48 | 1.0 | 5.0 | 0.00 | 0.00 | 0.00 | 34 | 1006.3 |
| 20260506011503 | 82 | 53 | 1.0 | 4.0 | 0.00 | 0.00 | 0.00 | 35 | 1006.3 |
| 20260506011403 | 82 | 53 | 1.0 | 4.0 | 0.00 | 0.00 | 0.00 | 35 | 1006.3 |
| 20260506011303 | 82 | 53 | 1.0 | 4.0 | 0.00 | 0.00 | 0.00 | 35 | 1006.3 |
| 20260506011203 | 82 | 54 | 1.0 | 4.0 | 0.00 | 0.00 | 0.00 | 35 | 1006.3 |
| 20260506011103 | 82 | 54 | 1.0 | 4.0 | 0.00 | 0.00 | 0.00 | 35 | 1006.2 |
| 20260506011003 | 82 | 54 | 1.0 | 5.0 | 0.00 | 0.00 | 0.00 | 35 | 1006.2 |
| 20260506010924 | 82 | 54 | 2.0 | 5.0 | 0.00 | 0.00 | 0.00 | 35 | 1006.3 |
| 20260506010824 | 82 | 54 | 2.0 | 5.0 | 0.00 | 0.00 | 0.00 | 36 | 1006.3 |
| 20260506010703 | 82 | 54 | 2.0 | 5.0 | 0.00 | 0.00 | 0.00 | 36 | 1006.3 |
| 20260506010603 | 82 | 54 | 2.0 | 5.0 | 0.00 | 0.00 | 0.00 | 36 | 1006.2 |
| 20260506010503 | 82 | 54 | 2.0 | 5.0 | 0.00 | 0.00 | 0.00 | 36 | 1006.3 |
| 20260506010424 | 82 | 55 | 2.0 | 5.0 | 0.00 | 0.00 | 0.00 | 37 | 1006.2 |
| 20260506010324 | 82 | 55 | 2.0 | 5.0 | 0.00 | 0.00 | 0.00 | 37 | 1006.2 |
| 20260506010203 | 82 | 55 | 2.0 | 5.0 | 0.00 | 0.00 | 0.00 | 37 | 1006.2 |
| 20260506010103 | 82 | 55 | 2.0 | 5.0 | 0.00 | 0.00 | 0.00 | 37 | 1006.2 |
| 20260506010003 | 82 | 55 | 2.0 | 5.0 | 0.00 | 0.00 | 0.00 | 37 | 1006.2 |
| 20260506005903 | 82 | 56 | 2.0 | 4.0 | 0.00 | 0.00 | 0.00 | 37 | 1006.2 |
| 20260506005803 | 82 | 56 | 1.0 | 4.0 | 0.00 | 0.00 | 0.00 | 38 | 1006.2 |
| 20260506005703 | 82 | 56 | 1.0 | 3.0 | 0.00 | 0.00 | 0.00 | 38 | 1006.2 |
| 20260506005603 | 82 | 56 | 2.0 | 3.0 | 0.00 | 0.00 | 0.00 | 38 | 1006.2 |
| 20260506005524 | 82 | 56 | 2.0 | 3.0 | 0.00 | 0.00 | 0.00 | 38 | 1006.2 |
| 20260506005424 | 82 | 55 | 2.0 | 3.0 | 0.00 | 0.00 | 0.00 | 39 | 1006.2 |
| 20260506005305 | 82 | 55 | 2.0 | 4.0 | 0.00 | 0.00 | 0.00 | 38 | 1006.2 |
| 20260506005203 | 82 | 55 | 2.0 | 4.0 | 0.00 | 0.00 | 0.00 | 39 | 1006.2 |
| 20260506005124 | 83 | 55 | 2.0 | 4.0 | 0.00 | 0.00 | 0.00 | 39 | 1006.2 |
| 20260506005003 | 83 | 55 | 2.0 | 4.0 | 0.00 | 0.00 | 0.00 | 39 | 1006.2 |
| 20260506004903 | 83 | 55 | 2.0 | 4.0 | 0.00 | 0.00 | 0.00 | 39 | 1006.2 |
| 20260506004803 | 83 | 55 | 2.0 | 4.0 | 0.00 | 0.00 | 0.00 | 39 | 1006.2 |
| 20260506004703 | 83 | 55 | 1.0 | 4.0 | 0.00 | 0.00 | 0.00 | 39 | 1006.2 |
| 20260506004604 | 83 | 55 | 1.0 | 4.0 | 0.00 | 0.00 | 0.00 | 39 | 1006.2 |
| 20260506004504 | 83 | 55 | 1.0 | 4.0 | 0.00 | 0.00 | 0.00 | 39 | 1006.2 |
| 20260506004403 | 83 | 55 | 1.0 | 4.0 | 0.00 | 0.00 | 0.00 | 40 | 1006.2 |
| 20260506004324 | 83 | 55 | 1.0 | 4.0 | 0.00 | 0.00 | 0.00 | 39 | 1006.2 |
| 20260506004224 | 83 | 55 | 1.0 | 4.0 | 0.00 | 0.00 | 0.00 | 40 | 1006.2 |
| 20260506004103 | 83 | 54 | 1.0 | 4.0 | 0.00 | 0.00 | 0.00 | 40 | 1006.2 |
| 20260506004003 | 83 | 54 | 1.0 | 4.0 | 0.00 | 0.00 | 0.00 | 40 | 1006.2 |
| 20260506003903 | 83 | 54 | 1.0 | 6.0 | 0.00 | 0.00 | 0.00 | 40 | 1006.1 |
| 20260506003803 | 83 | 54 | 1.0 | 6.0 | 0.00 | 0.00 | 0.00 | 40 | 1006.1 |
| 20260506003703 | 83 | 53 | 2.0 | 6.0 | 0.00 | 0.00 | 0.00 | 40 | 1006.1 |
| 20260506003603 | 83 | 53 | 2.0 | 6.0 | 0.00 | 0.00 | 0.00 | 40 | 1006.1 |
| 20260506003503 | 83 | 53 | 2.0 | 6.0 | 0.00 | 0.00 | 0.00 | 41 | 1006.1 |
| 20260506003403 | 83 | 53 | 2.0 | 6.0 | 0.00 | 0.00 | 0.00 | 41 | 1006.1 |
| 20260506003303 | 83 | 53 | 2.0 | 6.0 | 0.00 | 0.00 | 0.00 | 41 | 1006.1 |
| 20260506003203 | 83 | 53 | 2.0 | 6.0 | 0.00 | 0.00 | 0.00 | 41 | 1006.1 |
| 20260506003103 | 83 | 53 | 3.0 | 6.0 | 0.00 | 0.00 | 0.00 | 41 | 1006.1 |
| 20260506003003 | 83 | 53 | 3.0 | 6.0 | 0.00 | 0.00 | 0.00 | 42 | 1006.1 |
| 20260506002903 | 83 | 53 | 2.0 | 6.0 | 0.00 | 0.00 | 0.00 | 42 | 1006.1 |
| 20260506002803 | 83 | 53 | 2.0 | 6.0 | 0.00 | 0.00 | 0.00 | 42 | 1006.1 |
| 20260506002724 | 83 | 52 | 2.0 | 6.0 | 0.00 | 0.00 | 0.00 | 42 | 1006.1 |
| 20260506002603 | 83 | 51 | 2.0 | 4.0 | 0.00 | 0.00 | 0.00 | 42 | 1006.1 |
| 20260506002503 | 83 | 49 | 2.0 | 4.0 | 0.00 | 0.00 | 0.00 | 42 | 1006.2 |
| 20260506002424 | 83 | 47 | 2.0 | 6.0 | 0.00 | 0.00 | 0.00 | 42 | 1006.2 |
| 20260506002305 | 83 | 45 | 2.0 | 6.0 | 0.00 | 0.00 | 0.00 | 42 | 1006.1 |
| 20260506002203 | 83 | 43 | 2.0 | 6.0 | 0.00 | 0.00 | 0.00 | 42 | 1006.2 |
| 20260506002103 | 83 | 42 | 2.0 | 6.0 | 0.00 | 0.00 | 0.00 | 42 | 1006.2 |
| 20260506002003 | 83 | 41 | 2.0 | 6.0 | 0.00 | 0.00 | 0.00 | 42 | 1006.1 |
| 20260506001903 | 83 | 41 | 2.0 | 6.0 | 0.00 | 0.00 | 0.00 | 43 | 1006.1 |
| 20260506001803 | 83 | 40 | 2.0 | 6.0 | 0.00 | 0.00 | 0.00 | 43 | 1006.1 |
| 20260506001724 | 83 | 41 | 3.0 | 6.0 | 0.00 | 0.00 | 0.00 | 43 | 1006.1 |
| 20260506001624 | 83 | 42 | 3.0 | 6.0 | 0.00 | 0.00 | 0.00 | 43 | 1006.0 |
| 20260506001503 | 83 | 42 | 3.0 | 6.0 | 0.00 | 0.00 | 0.00 | 43 | 1006.0 |
| 20260506001403 | 83 | 42 | 3.0 | 8.0 | 0.00 | 0.00 | 0.00 | 43 | 1006.0 |
| 20260506001303 | 83 | 41 | 3.0 | 8.0 | 0.00 | 0.00 | 0.00 | 43 | 1006.0 |
| 20260506001203 | 83 | 42 | 3.0 | 8.0 | 0.00 | 0.00 | 0.00 | 43 | 1006.0 |
| 20260506001103 | 83 | 43 | 3.0 | 8.0 | 0.00 | 0.00 | 0.00 | 44 | 1006.0 |
| 20260506001003 | 83 | 43 | 4.0 | 10.0 | 0.00 | 0.00 | 0.00 | 43 | 1006.0 |
| 20260506000903 | 83 | 43 | 4.0 | 10.0 | 0.00 | 0.00 | 0.00 | 44 | 1005.9 |
| 20260506000803 | 83 | 44 | 4.0 | 10.0 | 0.00 | 0.00 | 0.00 | 44 | 1006.0 |
| 20260506000724 | 83 | 45 | 4.0 | 10.0 | 0.00 | 0.00 | 0.00 | 44 | 1006.0 |
| 20260506000624 | 83 | 44 | 4.0 | 10.0 | 0.00 | 0.00 | 0.00 | 44 | 1006.0 |
| 20260506000503 | 83 | 44 | 4.0 | 10.0 | 0.00 | 0.00 | 0.00 | 45 | 1006.0 |
| 20260506000424 | 83 | 46 | 4.0 | 10.0 | 0.00 | 0.00 | 0.00 | 45 | 1005.9 |
| 20260506000324 | 83 | 48 | 4.0 | 10.0 | 0.00 | 0.00 | 0.00 | 45 | 1005.9 |
| 20260506000205 | 83 | 43 | 4.0 | 10.0 | 0.00 | 0.00 | 0.00 | 45 | 1005.9 |
| 20260506000003 | 83 | 35 | 5.0 | 11.0 | 0.00 | 0.00 | 0.00 | 44 | 1005.8 |
| 20260505235903 | 83 | 33 | 5.0 | 11.0 | 0.00 | 0.00 | 0.00 | 45 | 1005.9 |
| 20260505235803 | 83 | 28 | 5.0 | 11.0 | 0.00 | 0.00 | 0.00 | 45 | 1005.9 |
| 20260505235703 | 83 | 21 | 4.0 | 11.0 | 0.00 | 0.00 | 0.00 | 45 | 1005.9 |
| 20260505235603 | 83 | 13 | 4.0 | 11.0 | 0.00 | 0.00 | 0.00 | 45 | 1005.9 |
| 20260505235503 | 83 | 11 | 4.0 | 11.0 | 0.00 | 0.00 | 0.00 | 45 | 1005.9 |
| 20260505235403 | 83 | 9 | 5.0 | 11.0 | 0.00 | 0.00 | 0.00 | 45 | 1005.8 |
| 20260505235305 | 83 | 11 | 4.0 | 11.0 | 0.00 | 0.00 | 0.00 | 45 | 1005.8 |
| 20260505235203 | 83 | 12 | 4.0 | 11.0 | 0.00 | 0.00 | 0.00 | 45 | 1005.7 |
| 20260505235103 | 83 | 9 | 4.0 | 10.0 | 0.00 | 0.00 | 0.00 | 45 | 1005.7 |
| 20260505235003 | 83 | 6 | 4.0 | 10.0 | 0.00 | 0.00 | 0.00 | 45 | 1005.7 |
| 20260505234924 | 83 | 7 | 4.0 | 10.0 | 0.00 | 0.00 | 0.00 | 45 | 1005.7 |
| 20260505234803 | 83 | 16 | 4.0 | 10.0 | 0.00 | 0.00 | 0.00 | 45 | 1005.7 |
| 20260505234724 | 83 | 21 | 4.0 | 10.0 | 0.00 | 0.00 | 0.00 | 46 | 1005.7 |
| 20260505234603 | 83 | 27 | 4.0 | 10.0 | 0.00 | 0.00 | 0.00 | 45 | 1005.7 |
| 20260505234503 | 83 | 22 | 4.0 | 14.0 | 0.00 | 0.00 | 0.00 | 45 | 1005.7 |
| 20260505234403 | 84 | 17 | 4.0 | 14.0 | 0.00 | 0.00 | 0.00 | 45 | 1005.7 |
| 20260505234303 | 84 | 16 | 4.0 | 14.0 | 0.00 | 0.00 | 0.00 | 45 | 1005.7 |
| 20260505234203 | 84 | 19 | 4.0 | 14.0 | 0.00 | 0.00 | 0.00 | 46 | 1005.7 |
| 20260505234103 | 84 | 25 | 4.0 | 14.0 | 0.00 | 0.00 | 0.00 | 46 | 1005.7 |
| 20260505234003 | 84 | 32 | 4.0 | 14.0 | 0.00 | 0.00 | 0.00 | 46 | 1005.7 |
| 20260505233903 | 84 | 30 | 4.0 | 14.0 | 0.00 | 0.00 | 0.00 | 46 | 1005.6 |
| 20260505233803 | 84 | 27 | 4.0 | 14.0 | 0.00 | 0.00 | 0.00 | 46 | 1005.6 |
| 20260505233703 | 84 | 30 | 4.0 | 14.0 | 0.00 | 0.00 | 0.00 | 46 | 1005.6 |
| 20260505233603 | 84 | 30 | 4.0 | 14.0 | 0.00 | 0.00 | 0.00 | 45 | 1005.6 |
| 20260505233503 | 84 | 36 | 4.0 | 13.0 | 0.00 | 0.00 | 0.00 | 45 | 1005.6 |
| 20260505233424 | 84 | 41 | 5.0 | 12.0 | 0.00 | 0.00 | 0.00 | 45 | 1005.6 |
| 20260505233303 | 84 | 31 | 5.0 | 12.0 | 0.00 | 0.00 | 0.00 | 46 | 1005.6 |
| 20260505233225 | 84 | 30 | 5.0 | 12.0 | 0.00 | 0.00 | 0.00 | 46 | 1005.6 |
| 20260505233103 | 84 | 28 | 6.0 | 12.0 | 0.00 | 0.00 | 0.00 | 46 | 1005.6 |
| 20260505233024 | 84 | 26 | 5.0 | 12.0 | 0.00 | 0.00 | 0.00 | 46 | 1005.7 |
| 20260505232924 | 84 | 24 | 5.0 | 12.0 | 0.00 | 0.00 | 0.00 | 46 | 1005.7 |
| 20260505232803 | 84 | 17 | 5.0 | 12.0 | 0.00 | 0.00 | 0.00 | 46 | 1005.6 |
| 20260505232703 | 84 | 10 | 5.0 | 12.0 | 0.00 | 0.00 | 0.00 | 46 | 1005.7 |
| 20260505232603 | 84 | 4 | 4.0 | 12.0 | 0.00 | 0.00 | 0.00 | 46 | 1005.7 |
| 20260505232503 | 84 | 349 | 4.0 | 12.0 | 0.00 | 0.00 | 0.00 | 46 | 1005.7 |
| 20260505232403 | 84 | 346 | 4.0 | 10.0 | 0.00 | 0.00 | 0.00 | 46 | 1005.7 |
| 20260505232305 | 84 | 356 | 4.0 | 10.0 | 0.00 | 0.00 | 0.00 | 46 | 1005.7 |
| 20260505232203 | 84 | 351 | 4.0 | 10.0 | 0.00 | 0.00 | 0.00 | 46 | 1005.6 |
| 20260505232103 | 84 | 339 | 4.0 | 10.0 | 0.00 | 0.00 | 0.00 | 46 | 1005.6 |
| 20260505232003 | 84 | 338 | 4.0 | 10.0 | 0.00 | 0.00 | 0.00 | 46 | 1005.7 |
| 20260505231903 | 84 | 340 | 4.0 | 12.0 | 0.00 | 0.00 | 0.00 | 46 | 1005.7 |
| 20260505231803 | 84 | 347 | 5.0 | 12.0 | 0.00 | 0.00 | 0.00 | 46 | 1005.7 |
| 20260505231703 | 84 | 355 | 5.0 | 12.0 | 0.00 | 0.00 | 0.00 | 46 | 1005.7 |
| 20260505231603 | 84 | 358 | 5.0 | 12.0 | 0.00 | 0.00 | 0.00 | 46 | 1005.7 |
| 20260505231503 | 84 | 1 | 5.0 | 12.0 | 0.00 | 0.00 | 0.00 | 46 | 1005.7 |
| 20260505231403 | 84 | 357 | 5.0 | 12.0 | 0.00 | 0.00 | 0.00 | 46 | 1005.7 |
| 20260505231303 | 84 | 351 | 5.0 | 12.0 | 0.00 | 0.00 | 0.00 | 47 | 1005.7 |
| 20260505231203 | 84 | 346 | 5.0 | 12.0 | 0.00 | 0.00 | 0.00 | 47 | 1005.7 |
| 20260505231103 | 84 | 352 | 5.0 | 12.0 | 0.00 | 0.00 | 0.00 | 47 | 1005.7 |
| 20260505231003 | 84 | 349 | 4.0 | 12.0 | 0.00 | 0.00 | 0.00 | 47 | 1005.7 |
| 20260505230903 | 84 | 344 | 4.0 | 10.0 | 0.00 | 0.00 | 0.00 | 47 | 1005.7 |
| 20260505230803 | 84 | 338 | 4.0 | 10.0 | 0.00 | 0.00 | 0.00 | 47 | 1005.7 |
| 20260505230703 | 84 | 336 | 4.0 | 10.0 | 0.00 | 0.00 | 0.00 | 47 | 1005.7 |
| 20260505230603 | 84 | 337 | 4.0 | 10.0 | 0.00 | 0.00 | 0.00 | 47 | 1005.6 |
| 20260505230503 | 84 | 335 | 4.0 | 9.0 | 0.00 | 0.00 | 0.00 | 47 | 1005.6 |
| 20260505230403 | 84 | 333 | 4.0 | 9.0 | 0.00 | 0.00 | 0.00 | 47 | 1005.6 |
| 20260505230303 | 84 | 335 | 4.0 | 9.0 | 0.00 | 0.00 | 0.00 | 47 | 1005.6 |
| 20260505230203 | 84 | 338 | 4.0 | 9.0 | 0.00 | 0.00 | 0.00 | 47 | 1005.6 |
| 20260505230003 | 84 | 343 | 5.0 | 11.0 | 0.00 | 0.00 | 0.00 | 47 | 1005.6 |
| 20260505225924 | 84 | 345 | 6.0 | 11.0 | 0.00 | 0.00 | 0.00 | 47 | 1005.5 |
| 20260505225803 | 84 | 358 | 6.0 | 16.0 | 0.00 | 0.00 | 0.00 | 47 | 1005.6 |
| 20260505225703 | 84 | 1 | 6.0 | 16.0 | 0.00 | 0.00 | 0.00 | 48 | 1005.5 |
| 20260505225603 | 84 | 3 | 6.0 | 16.0 | 0.00 | 0.00 | 0.00 | 48 | 1005.5 |
| 20260505225504 | 84 | 6 | 6.0 | 16.0 | 0.00 | 0.00 | 0.00 | 48 | 1005.6 |
| 20260505225403 | 84 | 11 | 6.0 | 16.0 | 0.00 | 0.00 | 0.00 | 48 | 1005.5 |
| 20260505225305 | 84 | 13 | 6.0 | 16.0 | 0.00 | 0.00 | 0.00 | 48 | 1005.6 |
| 20260505225203 | 84 | 12 | 7.0 | 16.0 | 0.00 | 0.00 | 0.00 | 49 | 1005.5 |
| 20260505225103 | 84 | 14 | 7.0 | 16.0 | 0.00 | 0.00 | 0.00 | 49 | 1005.6 |
| 20260505225003 | 84 | 15 | 7.0 | 16.0 | 0.00 | 0.00 | 0.00 | 49 | 1005.6 |
| 20260505224903 | 84 | 19 | 6.0 | 13.0 | 0.00 | 0.00 | 0.00 | 48 | 1005.6 |
| 20260505224824 | 84 | 17 | 6.0 | 13.0 | 0.00 | 0.00 | 0.00 | 48 | 1005.6 |
| 20260505224703 | 84 | 18 | 6.0 | 13.0 | 0.00 | 0.00 | 0.00 | 48 | 1005.5 |
| 20260505224603 | 84 | 17 | 6.0 | 13.0 | 0.00 | 0.00 | 0.00 | 48 | 1005.5 |
| 20260505224503 | 84 | 20 | 6.0 | 12.0 | 0.00 | 0.00 | 0.00 | 48 | 1005.5 |
| 20260505224403 | 84 | 21 | 6.0 | 12.0 | 0.00 | 0.00 | 0.00 | 48 | 1005.5 |
| 20260505224303 | 84 | 22 | 6.0 | 12.0 | 0.00 | 0.00 | 0.00 | 48 | 1005.5 |
| 20260505224203 | 84 | 24 | 6.0 | 12.0 | 0.00 | 0.00 | 0.00 | 48 | 1005.4 |
| 20260505224103 | 84 | 23 | 6.0 | 12.0 | 0.00 | 0.00 | 0.00 | 48 | 1005.4 |
| 20260505224003 | 84 | 21 | 5.0 | 12.0 | 0.00 | 0.00 | 0.00 | 48 | 1005.5 |
| 20260505223904 | 84 | 18 | 6.0 | 12.0 | 0.00 | 0.00 | 0.00 | 48 | 1005.5 |
| 20260505223803 | 84 | 14 | 6.0 | 14.0 | 0.00 | 0.00 | 0.00 | 48 | 1005.6 |
| 20260505223703 | 84 | 9 | 6.0 | 15.0 | 0.00 | 0.00 | 0.00 | 48 | 1005.5 |
| 20260505223603 | 84 | 9 | 6.0 | 15.0 | 0.00 | 0.00 | 0.00 | 48 | 1005.5 |
| 20260505223503 | 84 | 11 | 6.0 | 15.0 | 0.00 | 0.00 | 0.00 | 48 | 1005.6 |
| 20260505223403 | 84 | 14 | 6.0 | 15.0 | 0.00 | 0.00 | 0.00 | 48 | 1005.5 |
| 20260505223303 | 84 | 9 | 5.0 | 15.0 | 0.00 | 0.00 | 0.00 | 47 | 1005.6 |
| 20260505223203 | 84 | 8 | 6.0 | 15.0 | 0.00 | 0.00 | 0.00 | 47 | 1005.5 |
| 20260505223124 | 84 | 12 | 6.0 | 15.0 | 0.00 | 0.00 | 0.00 | 47 | 1005.5 |
| 20260505223003 | 84 | 9 | 6.0 | 15.0 | 0.00 | 0.00 | 0.00 | 47 | 1005.5 |
| 20260505222903 | 84 | 14 | 6.0 | 15.0 | 0.00 | 0.00 | 0.00 | 47 | 1005.5 |
| 20260505222824 | 84 | 17 | 6.0 | 15.0 | 0.00 | 0.00 | 0.00 | 47 | 1005.5 |
| 20260505222703 | 84 | 25 | 6.0 | 13.0 | 0.00 | 0.00 | 0.00 | 47 | 1005.5 |
| 20260505222604 | 84 | 27 | 6.0 | 13.0 | 0.00 | 0.00 | 0.00 | 47 | 1005.5 |
| 20260505222503 | 84 | 26 | 6.0 | 13.0 | 0.00 | 0.00 | 0.00 | 47 | 1005.5 |
| 20260505222424 | 84 | 25 | 6.0 | 13.0 | 0.00 | 0.00 | 0.00 | 47 | 1005.6 |
| 20260505222305 | 84 | 28 | 6.0 | 13.0 | 0.00 | 0.00 | 0.00 | 47 | 1005.6 |
| 20260505222203 | 84 | 27 | 6.0 | 11.0 | 0.00 | 0.00 | 0.00 | 47 | 1005.6 |
| 20260505222103 | 84 | 24 | 6.0 | 11.0 | 0.00 | 0.00 | 0.00 | 47 | 1005.6 |
| 20260505222003 | 84 | 24 | 6.0 | 11.0 | 0.00 | 0.00 | 0.00 | 47 | 1005.6 |
| 20260505221903 | 84 | 22 | 6.0 | 11.0 | 0.00 | 0.00 | 0.00 | 47 | 1005.7 |
| 20260505221803 | 84 | 17 | 5.0 | 11.0 | 0.00 | 0.00 | 0.00 | 46 | 1005.7 |
| 20260505221703 | 84 | 11 | 5.0 | 11.0 | 0.00 | 0.00 | 0.00 | 46 | 1005.7 |
| 20260505221604 | 84 | 5 | 5.0 | 11.0 | 0.00 | 0.00 | 0.00 | 46 | 1005.7 |
| 20260505221503 | 84 | 360 | 4.0 | 11.0 | 0.00 | 0.00 | 0.00 | 46 | 1005.7 |
| 20260505221403 | 84 | 2 | 4.0 | 11.0 | 0.00 | 0.00 | 0.00 | 47 | 1005.8 |
| 20260505221303 | 84 | 2 | 4.0 | 11.0 | 0.00 | 0.00 | 0.00 | 47 | 1005.7 |
| 20260505221203 | 84 | 5 | 4.0 | 11.0 | 0.00 | 0.00 | 0.00 | 46 | 1005.7 |
| 20260505221103 | 84 | 8 | 4.0 | 11.0 | 0.00 | 0.00 | 0.00 | 46 | 1005.7 |
| 20260505221024 | 84 | 14 | 4.0 | 11.0 | 0.00 | 0.00 | 0.00 | 46 | 1005.8 |
| 20260505220925 | 84 | 11 | 5.0 | 11.0 | 0.00 | 0.00 | 0.00 | 46 | 1005.8 |
| 20260505220803 | 84 | 15 | 5.0 | 11.0 | 0.00 | 0.00 | 0.00 | 46 | 1005.7 |
| 20260505220703 | 84 | 16 | 5.0 | 11.0 | 0.00 | 0.00 | 0.00 | 46 | 1005.8 |
| 20260505220603 | 84 | 19 | 5.0 | 11.0 | 0.00 | 0.00 | 0.00 | 46 | 1005.8 |
| 20260505220503 | 84 | 25 | 5.0 | 11.0 | 0.00 | 0.00 | 0.00 | 46 | 1005.8 |
| 20260505220403 | 84 | 25 | 6.0 | 11.0 | 0.00 | 0.00 | 0.00 | 46 | 1005.8 |
| 20260505220303 | 84 | 26 | 6.0 | 15.0 | 0.00 | 0.00 | 0.00 | 46 | 1005.8 |
| 20260505220225 | 84 | 26 | 6.0 | 15.0 | 0.00 | 0.00 | 0.00 | 46 | 1005.8 |
| 20260505220103 | 84 | 29 | 7.0 | 15.0 | 0.00 | 0.00 | 0.00 | 47 | 1005.8 |
| 20260505220004 | 84 | 30 | 7.0 | 15.0 | 0.00 | 0.00 | 0.00 | 47 | 1005.8 |
| 20260505215903 | 84 | 32 | 6.0 | 15.0 | 0.00 | 0.00 | 0.00 | 47 | 1005.8 |
| 20260505215803 | 84 | 33 | 6.0 | 15.0 | 0.00 | 0.00 | 0.00 | 46 | 1005.9 |
| 20260505215703 | 84 | 37 | 6.0 | 15.0 | 0.00 | 0.00 | 0.00 | 46 | 1005.9 |
| 20260505215604 | 84 | 39 | 6.0 | 15.0 | 0.00 | 0.00 | 0.00 | 46 | 1005.9 |
| 20260505215503 | 84 | 36 | 6.0 | 15.0 | 0.00 | 0.00 | 0.00 | 47 | 1005.9 |
| 20260505215424 | 84 | 36 | 6.0 | 15.0 | 0.00 | 0.00 | 0.00 | 47 | 1005.9 |
| 20260505215305 | 84 | 37 | 6.0 | 15.0 | 0.00 | 0.00 | 0.00 | 46 | 1006.0 |
| 20260505215203 | 84 | 34 | 5.0 | 11.0 | 0.00 | 0.00 | 0.00 | 46 | 1006.0 |
| 20260505215103 | 84 | 31 | 6.0 | 12.0 | 0.00 | 0.00 | 0.00 | 46 | 1006.0 |
| 20260505215003 | 84 | 25 | 5.0 | 12.0 | 0.00 | 0.00 | 0.00 | 45 | 1006.1 |
| 20260505214903 | 84 | 19 | 5.0 | 12.0 | 0.00 | 0.00 | 0.00 | 45 | 1006.1 |
| 20260505214803 | 84 | 19 | 6.0 | 12.0 | 0.00 | 0.00 | 0.00 | 46 | 1006.1 |
| 20260505214703 | 84 | 9 | 6.0 | 12.0 | 0.00 | 0.00 | 0.00 | 45 | 1006.1 |
| 20260505214603 | 84 | 7 | 5.0 | 12.0 | 0.00 | 0.00 | 0.00 | 45 | 1006.1 |
| 20260505214503 | 84 | 11 | 5.0 | 12.0 | 0.00 | 0.00 | 0.00 | 45 | 1006.1 |
| 20260505214403 | 84 | 10 | 5.0 | 12.0 | 0.00 | 0.00 | 0.00 | 45 | 1006.1 |
| 20260505214304 | 84 | 3 | 6.0 | 12.0 | 0.00 | 0.00 | 0.00 | 45 | 1006.1 |
| 20260505214203 | 84 | 8 | 6.0 | 12.0 | 0.00 | 0.00 | 0.00 | 45 | 1006.1 |
| 20260505214103 | 84 | 10 | 6.0 | 11.0 | 0.00 | 0.00 | 0.00 | 45 | 1006.0 |
| 20260505214003 | 84 | 19 | 6.0 | 11.0 | 0.00 | 0.00 | 0.00 | 45 | 1006.0 |
| 20260505213924 | 84 | 20 | 6.0 | 11.0 | 0.00 | 0.00 | 0.00 | 45 | 1006.0 |
| 20260505213825 | 84 | 28 | 6.0 | 11.0 | 0.00 | 0.00 | 0.00 | 45 | 1006.0 |
| 20260505213704 | 84 | 33 | 5.0 | 11.0 | 0.00 | 0.00 | 0.00 | 44 | 1006.1 |
| 20260505213604 | 84 | 30 | 5.0 | 11.0 | 0.00 | 0.00 | 0.00 | 45 | 1006.1 |
| 20260505213503 | 84 | 29 | 5.0 | 11.0 | 0.00 | 0.00 | 0.00 | 45 | 1006.1 |
| 20260505213424 | 84 | 29 | 5.0 | 11.0 | 0.00 | 0.00 | 0.00 | 45 | 1006.2 |
| 20260505213303 | 84 | 38 | 5.0 | 11.0 | 0.00 | 0.00 | 0.00 | 44 | 1006.2 |
| 20260505213224 | 84 | 38 | 5.0 | 11.0 | 0.00 | 0.00 | 0.00 | 44 | 1006.2 |
| 20260505213124 | 84 | 39 | 5.0 | 11.0 | 0.00 | 0.00 | 0.00 | 44 | 1006.3 |
| 20260505213024 | 84 | 39 | 5.0 | 9.0 | 0.00 | 0.00 | 0.00 | 44 | 1006.3 |
| 20260505212904 | 84 | 42 | 5.0 | 12.0 | 0.00 | 0.00 | 0.00 | 44 | 1006.4 |
| 20260505212803 | 84 | 41 | 5.0 | 12.0 | 0.00 | 0.00 | 0.00 | 43 | 1006.4 |
| 20260505212704 | 84 | 41 | 5.0 | 12.0 | 0.00 | 0.00 | 0.00 | 43 | 1006.4 |
| 20260505212603 | 84 | 45 | 6.0 | 12.0 | 0.00 | 0.00 | 0.00 | 43 | 1006.4 |
| 20260505212524 | 83 | 45 | 5.0 | 12.0 | 0.00 | 0.00 | 0.00 | 43 | 1006.4 |
| 20260505212403 | 83 | 44 | 6.0 | 12.0 | 0.00 | 0.00 | 0.00 | 43 | 1006.4 |
| 20260505212305 | 83 | 43 | 5.0 | 12.0 | 0.00 | 0.00 | 0.00 | 44 | 1006.4 |
| 20260505212204 | 83 | 41 | 5.0 | 12.0 | 0.00 | 0.00 | 0.00 | 44 | 1006.4 |
| 20260505212103 | 83 | 40 | 6.0 | 12.0 | 0.00 | 0.00 | 0.00 | 44 | 1006.3 |
| 20260505212004 | 83 | 35 | 6.0 | 12.0 | 0.00 | 0.00 | 0.00 | 44 | 1006.4 |
| 20260505211903 | 84 | 29 | 6.0 | 11.0 | 0.00 | 0.00 | 0.00 | 44 | 1006.4 |
| 20260505211803 | 83 | 31 | 6.0 | 11.0 | 0.00 | 0.00 | 0.00 | 44 | 1006.4 |
| 20260505211725 | 84 | 31 | 6.0 | 11.0 | 0.00 | 0.00 | 0.00 | 44 | 1006.4 |
| 20260505211603 | 84 | 28 | 6.0 | 11.0 | 0.00 | 0.00 | 0.00 | 43 | 1006.3 |
| 20260505211503 | 84 | 30 | 6.0 | 11.0 | 0.00 | 0.00 | 0.00 | 43 | 1006.3 |
| 20260505211403 | 84 | 29 | 6.0 | 11.0 | 0.00 | 0.00 | 0.00 | 43 | 1006.3 |
| 20260505211324 | 83 | 30 | 6.0 | 12.0 | 0.00 | 0.00 | 0.00 | 43 | 1006.3 |
| 20260505211203 | 83 | 32 | 6.0 | 12.0 | 0.00 | 0.00 | 0.00 | 44 | 1006.4 |
| 20260505211103 | 83 | 31 | 6.0 | 12.0 | 0.00 | 0.00 | 0.00 | 44 | 1006.4 |
| 20260505211003 | 83 | 33 | 6.0 | 12.0 | 0.00 | 0.00 | 0.00 | 44 | 1006.4 |
| 20260505210903 | 83 | 37 | 6.0 | 12.0 | 0.00 | 0.00 | 0.00 | 44 | 1006.4 |
| 20260505210824 | 83 | 36 | 6.0 | 12.0 | 0.00 | 0.00 | 0.00 | 44 | 1006.5 |
| 20260505210703 | 83 | 33 | 7.0 | 12.0 | 0.00 | 0.00 | 0.00 | 45 | 1006.6 |
| 20260505210603 | 83 | 33 | 6.0 | 12.0 | 0.00 | 0.00 | 0.00 | 45 | 1006.6 |
| 20260505210524 | 83 | 31 | 6.0 | 12.0 | 0.00 | 0.00 | 0.00 | 45 | 1006.6 |
| 20260505210403 | 83 | 28 | 6.0 | 12.0 | 0.00 | 0.00 | 0.00 | 45 | 1006.6 |
| 20260505210303 | 84 | 24 | 6.0 | 12.0 | 0.00 | 0.00 | 0.00 | 45 | 1006.6 |
| 20260505210203 | 84 | 25 | 6.0 | 12.0 | 0.00 | 0.00 | 0.00 | 45 | 1006.6 |
| 20260505210103 | 84 | 27 | 6.0 | 12.0 | 0.00 | 0.00 | 0.00 | 45 | 1006.7 |
| 20260505210024 | 84 | 29 | 6.0 | 12.0 | 0.00 | 0.00 | 0.00 | 45 | 1006.7 |
| 20260505205903 | 84 | 27 | 6.0 | 12.0 | 0.00 | 0.00 | 0.00 | 45 | 1006.6 |
| 20260505205803 | 84 | 24 | 6.0 | 12.0 | 0.00 | 0.00 | 0.00 | 45 | 1006.7 |
| 20260505205704 | 84 | 22 | 6.0 | 12.0 | 0.00 | 0.00 | 0.00 | 45 | 1006.6 |
| 20260505205624 | 84 | 23 | 6.0 | 12.0 | 0.00 | 0.00 | 0.00 | 45 | 1006.7 |
| 20260505205503 | 84 | 29 | 7.0 | 13.0 | 0.00 | 0.00 | 0.00 | 45 | 1006.7 |
| 20260505205424 | 84 | 30 | 7.0 | 13.0 | 0.00 | 0.00 | 0.00 | 45 | 1006.6 |
| 20260505205305 | 84 | 34 | 6.0 | 13.0 | 0.00 | 0.00 | 0.00 | 45 | 1006.6 |
| 20260505205203 | 84 | 34 | 6.0 | 13.0 | 0.00 | 0.00 | 0.00 | 45 | 1006.6 |
| 20260505205103 | 84 | 34 | 6.0 | 13.0 | 0.00 | 0.00 | 0.00 | 44 | 1006.6 |
| 20260505205003 | 84 | 31 | 7.0 | 13.0 | 0.00 | 0.00 | 0.00 | 44 | 1006.7 |
| 20260505204904 | 84 | 33 | 7.0 | 14.0 | 0.00 | 0.00 | 0.00 | 44 | 1006.7 |
| 20260505204824 | 84 | 36 | 7.0 | 14.0 | 0.00 | 0.00 | 0.00 | 43 | 1006.7 |
| 20260505204703 | 84 | 40 | 7.0 | 14.0 | 0.00 | 0.00 | 0.00 | 42 | 1006.6 |
| 20260505204603 | 84 | 39 | 7.0 | 14.0 | 0.00 | 0.00 | 0.00 | 42 | 1006.7 |
| 20260505204504 | 84 | 39 | 7.0 | 14.0 | 0.00 | 0.00 | 0.00 | 42 | 1006.7 |
| 20260505204403 | 83 | 38 | 8.0 | 14.0 | 0.00 | 0.00 | 0.00 | 41 | 1006.7 |
| 20260505204303 | 83 | 36 | 8.0 | 14.0 | 0.00 | 0.00 | 0.00 | 42 | 1006.7 |
| 20260505204203 | 83 | 35 | 7.0 | 14.0 | 0.00 | 0.00 | 0.00 | 43 | 1006.7 |
| 20260505204103 | 83 | 36 | 7.0 | 14.0 | 0.00 | 0.00 | 0.00 | 43 | 1006.8 |
| 20260505204024 | 83 | 38 | 7.0 | 14.0 | 0.00 | 0.00 | 0.00 | 43 | 1006.8 |
| 20260505203903 | 83 | 40 | 7.0 | 14.0 | 0.00 | 0.00 | 0.00 | 42 | 1006.8 |